Laatste waarneming: 00:22
Temperatuur:11,3°C
Dauwpunt:8,5°C
Rel. vocht:83,0%
Natte-bol:10,2°C
Wind (gem. 10 min.):0,0 m/s
Wind (max. 10 min.): m/s
Windrichting:283°
Neerslagsom:0,0 mm
Neerslagintensiteit:0,0 mm/u
Luchtdruk:1027,4 hPa
Straling:0,0 W/m2
 
Maximumtemp.:11,5°C (00:00)
Minimumtemp.:11,3°C (00:11)
Hoogste windstoot:- m/s (12:36)


Bekijk het Grafiekoverzicht.
Bekijk het Maandoverzicht.
Dagtabel
Tijd Temp. Dauwp. Natte-bol Rel. Hum. Windsnelh. Windricht. Windstoot Neerslag Straling Luchtdruk
 
00:22 11,3 8,5 10,2 83,0 0,0 283 - 0,0 0 1.027,4
00:21 11,3 8,5 10,2 83,0 0,0 282 - 0,0 0 1.027,4
00:20 11,3 8,5 10,2 83,0 0,0 282 - 0,0 0 1.027,4
00:19 11,3 8,5 10,2 83,0 0,0 282 - 0,0 0 1.027,4
00:18 11,3 8,5 10,2 83,0 0,0 282 - 0,0 0 1.027,3
00:17 11,3 8,5 10,2 83,0 0,0 281 - 0,0 0 1.027,3
00:16 11,3 8,5 10,2 83,0 0,0 279 - 0,0 0 1.027,3
00:15 11,3 8,5 10,2 83,0 0,0 108 - 0,0 0 1.027,3
00:14 11,3 8,5 10,2 83,0 0,0 104 - 0,0 0 1.027,3
00:13 11,4 8,6 10,3 83,0 0,0 104 - 0,0 0 1.027,3
00:12 11,4 8,6 10,3 83,0 0,0 103 - 0,0 0 1.027,3
00:11 11,3 8,4 10,1 82,2 0,0 103 - 0,0 0 1.027,3
00:10 11,4 8,4 10,2 82,0 0,0 103 - 0,0 0 1.027,3
00:09 11,4 8,4 10,2 82,0 0,0 103 - 0,0 0 1.027,2
00:08 11,4 8,4 10,2 82,0 0,0 103 - 0,0 0 1.027,2
00:07 11,4 8,4 10,2 82,0 0,0 103 - 0,0 0 1.027,2
00:06 11,4 8,4 10,2 82,0 0,0 102 - 0,0 0 1.027,1
00:05 11,4 8,4 10,2 82,0 0,2 102 - 0,0 0 1.027,1
00:04 11,4 8,4 10,2 82,0 0,3 102 - 0,0 0 1.027,1
00:03 11,4 8,2 10,1 80,8 0,6 102 - 0,0 0 1.027,1
00:02 11,4 7,7 9,8 78,0 0,9 102 - 0,0 0 1.027,1
00:01 11,4 7,7 9,8 78,0 1,1 102 - 0,0 0 1.027,1
00:00 11,5 7,8 9,9 78,0 1,3 101 - 0,0 0 1.027,1
 
23:59 11,5 7,8 9,9 78,0 1,5 101 - 0,0 0 1.027,0
23:58 11,5 7,8 9,9 78,0 1,6 101 - 0,0 0 1.027,0
23:57 11,5 7,7 9,8 77,7 1,5 101 - 0,0 0 1.027,0
23:56 11,6 7,7 9,9 77,0 1,5 101 - 0,0 0 1.026,9
23:55 11,6 7,7 9,9 77,0 1,4 101 - 0,0 0 1.027,0
23:54 11,6 7,7 9,9 77,0 1,4 101 - 0,0 0 1.027,0
23:53 11,6 7,7 9,9 77,0 1,3 101 - 0,0 0 1.027,0
23:52 11,7 7,8 10,0 77,0 1,2 101 - 0,0 0 1.027,0
23:51 11,7 7,8 10,0 77,0 1,2 101 - 0,0 0 1.027,1
23:50 11,7 7,8 10,0 77,0 1,2 101 - 0,0 0 1.027,1
23:49 11,7 7,8 10,0 77,0 1,2 101 - 0,0 0 1.027,1
23:48 11,7 7,8 10,0 77,0 1,2 101 - 0,0 0 1.027,1
23:47 11,7 7,8 10,0 77,0 1,2 101 - 0,0 0 1.027,1
23:46 11,8 7,9 10,1 77,0 1,2 101 - 0,0 0 1.027,1
23:45 11,8 7,9 10,1 77,0 1,3 101 - 0,0 0 1.027,1
23:44 11,8 7,9 10,1 77,0 1,3 102 - 0,0 0 1.027,1
23:43 11,8 7,9 10,1 77,0 1,3 102 - 0,0 0 1.027,1
23:42 11,8 7,9 10,1 77,0 1,3 102 - 0,0 0 1.027,1
23:41 11,8 7,9 10,1 77,0 1,4 102 - 0,0 0 1.027,1
23:40 11,8 7,9 10,1 77,0 1,4 103 - 0,0 0 1.027,1
23:39 11,8 7,8 10,0 76,5 1,4 103 - 0,0 0 1.027,0
23:38 11,9 7,8 10,0 76,0 1,4 103 - 0,0 0 1.027,0
23:37 11,9 7,8 10,0 76,0 1,4 104 - 0,0 0 1.027,0
23:36 11,9 7,8 10,0 76,0 1,4 104 - 0,0 0 1.027,0
23:35 11,9 7,8 10,0 76,0 1,4 105 - 0,0 0 1.027,0
23:34 12,0 7,9 10,1 76,0 1,5 105 - 0,0 0 1.027,0
23:33 12,0 7,9 10,1 76,0 1,5 105 - 0,0 0 1.027,0
23:32 12,0 7,9 10,1 76,0 1,5 106 - 0,0 0 1.027,0
23:31 12,1 8,0 10,2 76,0 1,6 106 - 0,0 0 1.027,0
23:30 12,1 8,0 10,2 76,0 1,6 107 - 0,0 0 1.027,0
23:29 12,1 8,0 10,2 76,0 1,6 107 - 0,0 0 1.027,0
23:28 12,1 8,0 10,2 76,0 1,5 108 - 0,0 0 1.027,0
23:27 12,2 8,1 10,3 76,0 1,4 108 - 0,0 0 1.026,9
23:26 12,2 8,1 10,3 76,0 1,3 108 - 0,0 0 1.026,9
23:25 12,2 8,1 10,3 76,0 1,1 108 - 0,0 0 1.026,9
23:24 12,2 8,1 10,3 76,0 1,0 108 - 0,0 0 1.026,9
23:23 12,2 7,9 10,2 75,1 0,8 107 - 0,0 0 1.026,9
23:22 12,2 7,9 10,2 75,0 0,7 107 - 0,0 0 1.026,9
23:21 12,2 7,9 10,2 75,0 0,7 106 - 0,0 0 1.026,9
23:20 12,2 7,9 10,2 75,0 0,8 105 - 0,0 0 1.027,0
23:19 12,2 7,9 10,2 75,0 1,0 104 - 0,0 0 1.027,1
23:18 12,2 7,9 10,2 75,0 1,1 103 - 0,0 0 1.027,1
23:17 12,2 7,9 10,2 75,0 1,3 102 - 0,0 0 1.027,1
23:16 12,2 7,9 10,2 75,0 1,4 102 - 0,0 0 1.027,1
23:15 12,2 7,9 10,2 75,0 1,4 101 - 0,0 0 1.027,2
23:14 12,2 7,9 10,2 75,0 1,4 100 - 0,0 0 1.027,2
23:13 12,2 7,9 10,2 75,0 1,4 99 - 0,0 0 1.027,2
23:12 12,2 7,9 10,2 75,0 1,4 99 - 0,0 0 1.027,2
23:11 12,2 7,9 10,2 75,0 1,4 98 - 0,0 0 1.027,2
23:10 12,2 7,9 10,2 75,0 1,4 98 - 0,0 0 1.027,2
23:09 12,3 8,0 10,3 75,0 1,4 97 - 0,0 0 1.027,2
23:08 12,3 8,0 10,3 75,0 1,4 97 - 0,0 0 1.027,2
23:07 12,3 8,0 10,3 75,0 1,3 96 - 0,0 0 1.027,2
23:06 12,3 8,0 10,3 75,0 1,3 96 - 0,0 0 1.027,2
23:05 12,4 8,1 10,4 74,8 1,2 96 - 0,0 0 1.027,2
23:04 12,4 7,9 10,3 74,0 1,2 96 - 0,0 0 1.027,2
23:03 12,4 7,9 10,3 74,0 1,2 97 - 0,0 0 1.027,2
23:02 12,4 7,9 10,3 74,0 1,3 97 - 0,0 0 1.027,2
23:01 12,4 7,9 10,3 74,0 1,3 97 - 0,0 0 1.027,1
23:00 12,4 7,9 10,3 74,0 1,3 97 - 0,0 0 1.027,1
 
22:59 12,4 7,9 10,3 74,0 1,3 98 - 0,0 0 1.027,1
22:58 12,4 7,9 10,3 74,0 1,2 98 - 0,0 0 1.027,1
22:57 12,4 7,9 10,3 74,1 1,2 98 - 0,0 0 1.027,1
22:56 12,4 8,1 10,4 74,8 1,2 98 - 0,0 0 1.027,0
22:55 12,4 8,1 10,4 75,0 1,2 98 - 0,0 0 1.027,0
22:54 12,4 8,1 10,4 75,0 1,2 98 - 0,0 0 1.027,0
22:53 12,3 8,0 10,3 75,0 1,3 98 - 0,0 0 1.027,0
22:52 12,3 8,0 10,3 75,0 1,4 98 - 0,0 0 1.027,0
22:51 12,3 8,0 10,3 75,0 1,5 98 - 0,0 0 1.026,9
22:49 12,3 8,0 10,3 75,0 1,5 99 - 0,0 0 1.026,8
22:48 12,3 8,0 10,3 75,0 1,5 99 - 0,0 0 1.026,8
22:47 12,4 8,1 10,4 75,0 1,5 99 - 0,0 0 1.026,8
22:46 12,3 8,0 10,3 75,0 1,4 99 - 0,0 0 1.026,8
22:45 12,4 8,1 10,4 75,0 1,4 100 - 0,0 0 1.026,8
22:44 12,4 8,1 10,4 75,0 1,4 100 - 0,0 0 1.026,8
22:43 12,4 8,1 10,4 75,0 1,4 100 - 0,0 0 1.026,8
22:42 12,4 8,1 10,4 75,0 1,4 101 - 0,0 0 1.026,7
22:41 12,4 8,1 10,4 75,0 1,5 101 - 0,0 0 1.026,7
22:40 12,4 8,1 10,4 75,0 1,5 102 - 0,0 0 1.026,7
22:39 12,4 8,1 10,4 75,0 1,4 102 - 0,0 0 1.026,7
22:38 12,4 8,1 10,4 75,0 1,4 103 - 0,0 0 1.026,6
22:37 12,4 8,1 10,4 75,0 1,4 104 - 0,0 0 1.026,6
22:36 12,4 8,1 10,4 75,0 1,3 104 - 0,0 0 1.026,6
22:35 12,4 8,1 10,4 75,0 1,3 105 - 0,0 0 1.026,6
22:34 12,4 8,1 10,4 75,0 1,3 105 - 0,0 0 1.026,5
22:33 12,4 8,1 10,4 75,0 1,3 106 - 0,0 0 1.026,5
22:32 12,4 8,1 10,4 75,0 1,3 106 - 0,0 0 1.026,5
22:31 12,5 8,2 10,5 75,0 1,3 107 - 0,0 0 1.026,5
22:30 12,5 8,2 10,5 75,0 1,3 107 - 0,0 0 1.026,5
22:29 12,5 8,2 10,5 75,0 1,3 108 - 0,0 0 1.026,5
22:28 12,5 8,2 10,5 75,0 1,4 108 - 0,0 0 1.026,4
22:27 12,5 8,2 10,5 75,0 1,4 108 - 0,0 0 1.026,4
22:26 12,5 8,2 10,5 75,0 1,4 108 - 0,0 0 1.026,4
22:25 12,5 8,2 10,5 75,0 1,3 108 - 0,0 0 1.026,4
22:24 12,6 8,3 10,6 75,0 1,3 108 - 0,0 0 1.026,4
22:23 12,6 8,3 10,6 75,0 1,3 107 - 0,0 0 1.026,4
22:22 12,6 8,3 10,6 75,0 1,3 107 - 0,0 0 1.026,4
22:21 12,6 8,3 10,6 75,0 1,3 107 - 0,0 0 1.026,3
22:20 12,6 8,3 10,6 75,0 1,3 106 - 0,0 0 1.026,3
22:19 12,6 8,3 10,6 75,0 1,4 106 - 0,0 0 1.026,3
22:18 12,6 8,3 10,6 75,0 1,4 106 - 0,0 0 1.026,3
22:17 12,7 8,4 10,7 75,0 1,5 106 - 0,0 0 1.026,3
22:16 12,7 8,4 10,7 75,0 1,5 106 - 0,0 0 1.026,3
22:15 12,7 8,4 10,7 75,0 1,6 106 - 0,0 0 1.026,4
22:14 12,7 8,4 10,7 75,0 1,7 106 - 0,0 0 1.026,4
22:13 12,8 8,5 10,8 75,0 1,7 107 - 0,0 0 1.026,3
22:12 12,8 8,5 10,8 75,0 1,7 107 - 0,0 0 1.026,3
22:11 12,8 8,5 10,8 75,0 1,7 107 - 0,0 0 1.026,3
22:10 12,8 8,5 10,8 75,0 1,7 107 - 0,0 0 1.026,2
22:08 12,9 8,6 10,9 75,0 1,7 107 - 0,0 0 1.026,1
22:07 12,9 8,6 10,9 75,0 1,7 107 - 0,0 0 1.026,1
22:06 12,9 8,6 10,9 75,0 1,6 107 - 0,0 0 1.026,1
22:05 12,9 8,6 10,9 75,0 1,6 108 - 0,0 0 1.026,1
22:04 12,9 8,6 10,9 75,0 1,6 108 - 0,0 0 1.026,1
22:03 12,9 8,6 10,9 75,0 1,6 108 - 0,0 0 1.026,1
22:02 12,9 8,4 10,8 74,1 1,6 108 - 0,0 0 1.026,2
22:01 13,0 8,5 10,9 74,0 1,7 109 - 0,0 0 1.026,2
22:00 13,0 8,5 10,9 74,0 1,7 109 - 0,0 0 1.026,1
 
21:59 13,1 8,6 11,0 74,0 1,7 109 - 0,0 0 1.026,1
21:58 13,1 8,6 11,0 74,0 1,7 109 - 0,0 0 1.026,1
21:57 13,1 8,6 11,0 74,0 1,6 110 - 0,0 0 1.026,1
21:56 13,1 8,6 11,0 74,0 1,5 109 - 0,0 0 1.026,0
21:55 13,1 8,6 11,0 74,0 1,4 109 - 0,0 0 1.026,0
21:54 13,1 8,6 11,0 74,0 1,3 109 - 0,0 0 1.026,0
21:53 13,1 8,6 11,0 74,0 1,3 109 - 0,0 0 1.026,0
21:52 13,1 8,6 11,0 74,0 1,3 109 - 0,0 0 1.026,0
21:51 13,1 8,6 11,0 74,0 1,3 108 - 0,0 0 1.025,9
21:50 13,1 8,6 11,0 74,0 1,3 108 - 0,0 0 1.025,9
21:49 13,1 8,6 11,0 74,0 1,4 107 - 0,0 0 1.025,9
21:48 13,1 8,6 11,0 74,0 1,4 107 - 0,0 0 1.025,9
21:47 13,1 8,6 11,0 74,0 1,5 107 - 0,0 0 1.025,9
21:46 13,1 8,6 11,0 74,0 1,6 106 - 0,0 0 1.026,0
21:45 13,1 8,6 11,0 74,0 1,7 106 - 0,0 0 1.026,0
21:44 13,1 8,4 10,9 73,1 1,8 106 - 0,0 0 1.026,1
21:43 13,1 8,4 10,9 73,0 1,9 105 - 0,0 0 1.026,1
21:42 13,2 8,5 11,0 73,0 2,0 105 - 0,0 0 1.026,1
21:41 13,2 8,5 11,0 73,0 2,0 104 - 0,0 0 1.026,1
21:40 13,2 8,5 11,0 73,0 2,0 104 - 0,0 0 1.026,1
21:39 13,2 8,5 11,0 73,0 2,0 103 - 0,0 0 1.026,1
21:38 13,2 8,5 11,0 73,0 2,0 102 - 0,0 0 1.026,1
21:37 13,3 8,6 11,1 73,0 2,0 102 - 0,0 0 1.026,1
21:36 13,3 8,6 11,1 73,0 2,0 101 - 0,0 0 1.026,0
21:35 13,3 8,6 11,1 73,0 2,0 100 - 0,0 0 1.026,0
21:34 13,3 8,6 11,1 73,0 2,1 100 - 0,0 0 1.026,0
21:33 13,3 8,4 11,0 72,2 2,2 99 - 0,0 0 1.026,0
21:32 13,3 8,4 10,9 72,0 2,3 99 - 0,0 0 1.026,1
21:31 13,3 8,4 10,9 72,0 2,3 99 - 0,0 0 1.026,1
21:30 13,3 8,4 10,9 72,0 2,2 98 - 0,0 0 1.026,1
21:29 13,4 8,5 11,0 72,0 2,1 98 - 0,0 0 1.026,1
21:28 13,4 8,5 11,0 72,0 2,0 98 - 0,0 0 1.026,1
21:27 13,4 8,5 11,0 72,0 1,9 97 - 0,0 0 1.026,1
21:26 13,4 8,3 10,9 71,1 1,8 97 - 0,0 0 1.026,0
21:25 13,4 8,2 10,9 71,0 1,8 97 - 0,0 0 1.026,0
21:24 13,5 8,3 11,0 71,0 2,0 97 - 0,0 0 1.026,0
21:23 13,5 8,3 11,0 71,0 2,1 97 - 0,0 0 1.026,0
21:22 13,5 8,3 11,0 71,0 2,2 97 - 0,0 0 1.026,0
21:21 13,6 8,4 11,1 71,0 2,2 97 - 0,0 0 1.025,9
21:20 13,6 8,4 11,1 71,0 2,2 97 - 0,0 0 1.025,9
21:19 13,6 8,4 11,1 71,0 2,1 97 - 0,0 0 1.025,8
21:18 13,6 8,4 11,1 71,0 2,0 97 - 0,0 0 1.025,8
21:17 13,6 8,4 11,1 71,0 1,9 97 - 0,0 0 1.025,8
21:16 13,6 8,4 11,1 71,0 1,8 98 - 0,0 0 1.025,7
21:15 13,6 8,4 11,1 71,0 1,8 98 - 0,0 0 1.025,7
21:14 13,6 8,3 11,0 70,1 1,8 98 - 0,0 0 1.025,7
21:13 13,6 8,2 11,0 70,0 1,8 99 - 0,0 0 1.025,7
21:12 13,7 8,3 11,1 70,0 1,8 99 - 0,0 0 1.025,7
21:11 13,7 8,3 11,1 70,0 1,8 99 - 0,0 0 1.025,7
21:10 13,7 8,3 11,1 70,0 1,8 99 - 0,0 0 1.025,7
21:09 13,7 8,3 11,1 70,0 1,7 99 - 0,0 0 1.025,7
21:08 13,7 8,3 11,1 70,0 1,7 99 - 0,0 0 1.025,6
21:07 13,7 8,3 11,1 70,0 1,7 99 - 0,0 0 1.025,7
21:06 13,7 8,3 11,1 70,0 1,8 99 - 0,0 0 1.025,7
21:05 13,8 8,4 11,2 70,0 1,8 99 - 0,0 0 1.025,7
21:04 13,8 8,4 11,2 70,0 1,7 99 - 0,0 0 1.025,6
21:03 13,8 8,4 11,2 69,8 1,7 98 - 0,0 0 1.025,6
21:02 13,8 8,2 11,1 69,0 1,6 98 - 0,0 0 1.025,6
21:01 13,8 8,2 11,1 69,0 1,6 98 - 0,0 0 1.025,6
21:00 13,8 8,2 11,1 69,0 1,6 98 - 0,0 0 1.025,6
 
20:59 13,8 8,2 11,1 69,0 1,6 98 - 0,0 0 1.025,7
20:58 13,8 8,2 11,1 69,0 1,5 98 - 0,0 0 1.025,7
20:57 13,8 8,2 11,1 69,0 1,5 98 - 0,0 0 1.025,7
20:56 13,8 8,2 11,1 69,0 1,5 98 - 0,0 0 1.025,7
20:55 13,8 8,2 11,1 69,0 1,5 97 - 0,0 0 1.025,7
20:54 13,9 8,3 11,2 69,0 1,5 97 - 0,0 0 1.025,6
20:53 13,9 8,3 11,2 69,0 1,4 96 - 0,0 0 1.025,6
20:52 13,9 8,3 11,2 69,0 1,4 95 - 0,0 0 1.025,6
20:51 13,9 8,3 11,2 69,0 1,5 95 - 0,0 0 1.025,6
20:50 13,9 8,3 11,2 69,0 1,6 94 - 0,0 0 1.025,6
20:49 13,9 8,3 11,2 69,0 1,7 94 - 0,0 0 1.025,6
20:48 13,9 8,2 11,1 68,5 1,7 94 - 0,0 0 1.025,6
20:47 13,9 8,1 11,0 68,0 1,8 93 - 0,0 0 1.025,6
20:46 13,9 8,1 11,0 68,0 1,9 93 - 0,0 0 1.025,6
20:45 13,9 8,1 11,0 68,0 1,9 93 - 0,0 0 1.025,6
20:44 14,0 8,2 11,1 68,0 1,9 92 - 0,0 0 1.025,6
20:43 14,0 8,2 11,1 68,0 1,8 92 - 0,0 0 1.025,6
20:42 14,0 8,2 11,1 68,0 1,8 91 - 0,0 0 1.025,6
20:41 14,0 8,2 11,1 68,0 1,8 91 - 0,0 0 1.025,6
20:40 14,1 8,3 11,2 68,0 1,8 90 - 0,0 0 1.025,6
20:39 14,1 8,3 11,2 68,0 1,8 90 - 0,0 0 1.025,6
20:38 14,1 8,3 11,2 68,0 1,7 89 - 0,0 0 1.025,6
20:37 14,1 8,3 11,2 68,0 1,7 89 - 0,0 0 1.025,6
20:36 14,1 8,3 11,2 68,0 1,7 89 - 0,0 0 1.025,6
20:35 14,1 8,3 11,2 68,0 1,7 89 - 0,0 0 1.025,6
20:34 14,1 8,3 11,2 68,0 1,7 89 - 0,0 0 1.025,7
20:33 14,1 8,3 11,2 68,0 1,8 89 - 0,0 0 1.025,6
20:32 14,1 8,3 11,2 68,0 1,8 89 - 0,0 0 1.025,6
20:31 14,1 8,3 11,2 68,0 1,9 89 - 0,0 0 1.025,6
20:30 14,2 8,4 11,3 68,0 1,9 89 - 0,0 0 1.025,6
20:29 14,2 8,4 11,3 68,0 2,0 89 - 0,0 0 1.025,6
20:28 14,2 8,4 11,3 68,0 2,0 89 - 0,0 0 1.025,6
20:27 14,2 8,4 11,3 68,0 2,0 89 - 0,0 0 1.025,5
20:26 14,2 8,3 11,3 67,7 2,0 89 - 0,0 0 1.025,5
20:25 14,2 8,2 11,2 67,0 2,0 89 - 0,0 0 1.025,5
20:24 14,2 8,2 11,2 67,0 2,1 89 - 0,0 0 1.025,5
20:23 14,2 8,2 11,2 67,0 2,1 88 - 0,0 0 1.025,5
20:22 14,3 8,3 11,3 67,0 2,1 88 - 0,0 0 1.025,5
20:21 14,3 8,3 11,3 67,0 2,1 88 - 0,0 0 1.025,5
20:20 14,3 8,3 11,3 67,0 2,0 87 - 0,0 0 1.025,5
20:19 14,3 8,3 11,3 67,0 1,9 87 - 0,0 0 1.025,5
20:18 14,3 8,3 11,3 67,0 1,7 87 - 0,0 0 1.025,5
20:17 14,3 8,3 11,3 67,0 1,6 86 - 0,0 0 1.025,5
20:16 14,3 8,3 11,3 67,0 1,5 86 - 0,0 0 1.025,4
20:15 14,4 8,3 11,4 67,0 1,4 85 - 0,0 0 1.025,5
20:14 14,4 8,3 11,3 66,7 1,4 85 - 0,0 0 1.025,5
20:13 14,4 8,1 11,3 66,0 1,4 85 - 0,0 0 1.025,5
20:12 14,4 8,1 11,3 66,0 1,4 84 - 0,0 0 1.025,4
20:11 14,4 8,1 11,3 66,0 1,4 84 - 0,0 0 1.025,4
20:10 14,4 8,1 11,3 66,0 1,5 84 - 0,0 0 1.025,4
20:09 14,4 8,1 11,3 66,0 1,6 84 - 0,0 0 1.025,3
20:08 14,5 8,1 11,3 65,6 1,6 84 - 0,0 0 1.025,3
20:07 14,5 8,0 11,2 65,0 1,6 84 - 0,0 0 1.025,2
20:06 14,5 8,0 11,2 65,0 1,6 84 - 0,0 0 1.025,2
20:05 14,6 8,1 11,3 65,0 1,7 85 - 0,0 0 1.025,3
20:04 14,6 8,1 11,3 65,0 1,7 85 - 0,0 0 1.025,2
20:03 14,6 8,1 11,3 65,0 1,7 85 - 0,0 0 1.025,3
20:02 14,7 8,2 11,4 65,0 1,6 86 - 0,0 0 1.025,3
20:01 14,7 8,2 11,4 65,0 1,6 86 - 0,0 0 1.025,2
20:00 14,7 8,0 11,3 64,3 1,6 86 - 0,0 0 1.025,2
 
19:59 14,7 8,0 11,3 64,0 1,5 87 - 0,0 0 1.025,2
19:58 14,8 8,1 11,4 64,0 1,5 87 - 0,0 0 1.025,2
19:57 14,8 8,1 11,4 64,0 1,4 87 - 0,0 0 1.025,2
19:56 14,8 8,1 11,4 64,0 1,4 88 - 0,0 0 1.025,1
19:55 14,9 8,0 11,4 63,4 1,4 88 - 0,0 0 1.025,2
19:54 14,9 7,9 11,3 63,0 1,4 88 - 0,0 0 1.025,2
19:53 14,9 7,9 11,3 63,0 1,4 89 - 0,0 0 1.025,2
19:52 15,0 8,0 11,4 63,0 1,4 89 - 0,0 0 1.025,1
19:51 15,0 7,9 11,4 62,5 1,4 89 - 0,0 0 1.025,1
19:50 15,0 7,8 11,3 62,0 1,3 90 - 0,0 0 1.025,1
19:49 15,1 7,9 11,4 62,0 1,2 90 - 0,0 0 1.025,1
19:48 15,1 7,9 11,4 62,0 1,1 91 - 0,0 0 1.025,1
19:47 15,1 7,9 11,4 62,0 1,1 91 - 0,0 0 1.025,1
19:46 15,1 7,9 11,4 62,0 1,1 92 - 0,0 0 1.025,1
19:45 15,2 8,0 11,5 62,0 1,1 93 - 0,0 0 1.025,1
19:44 15,2 8,0 11,5 62,0 1,2 94 - 0,0 0 1.025,0
19:43 15,2 8,0 11,5 62,0 1,3 94 - 0,0 1 1.025,0
19:42 15,3 7,9 11,5 61,3 1,4 95 - 0,0 5 1.025,0
19:41 15,3 7,8 11,4 61,0 1,4 96 - 0,0 5 1.025,0
19:40 15,3 7,8 11,4 61,0 1,4 97 - 0,0 5 1.025,1
19:39 15,3 7,8 11,4 61,0 1,4 98 - 0,0 5 1.025,0
19:38 15,4 7,9 11,5 61,0 1,3 98 - 0,0 7 1.025,0
19:37 15,4 7,9 11,5 61,0 1,3 99 - 0,0 7 1.025,0
19:36 15,4 7,9 11,5 61,0 1,3 99 - 0,0 7 1.024,9
19:35 15,4 7,9 11,5 61,0 1,3 100 - 0,0 7 1.024,9
19:34 15,4 7,9 11,5 61,0 1,3 100 - 0,0 8 1.024,9
19:33 15,5 8,0 11,6 61,0 1,3 100 - 0,0 9 1.024,9
19:32 15,5 8,0 11,6 61,0 1,3 100 - 0,0 9 1.024,9
19:31 15,5 8,0 11,6 61,0 1,2 100 - 0,0 11 1.024,8
19:30 15,5 7,8 11,5 60,2 1,2 100 - 0,0 11 1.024,8
19:29 15,5 7,8 11,5 60,3 1,3 100 - 0,0 12 1.024,7
19:28 15,6 8,1 11,7 60,8 1,3 100 - 0,0 12 1.024,8
19:27 15,6 7,9 11,6 60,0 1,3 99 - 0,0 12 1.024,7
19:26 15,6 7,9 11,6 60,0 1,4 99 - 0,0 14 1.024,7
19:25 15,6 7,9 11,6 60,0 1,4 98 - 0,0 14 1.024,7
19:24 15,6 7,9 11,6 60,0 1,4 98 - 0,0 14 1.024,7
19:23 15,6 7,9 11,6 60,0 1,3 97 - 0,0 15 1.024,6
19:22 15,6 7,9 11,6 60,0 1,3 97 - 0,0 16 1.024,6
19:21 15,6 7,8 11,5 59,6 1,4 96 - 0,0 16 1.024,6
19:20 15,7 7,7 11,5 59,0 1,4 95 - 0,0 18 1.024,6
19:19 15,7 7,7 11,5 59,0 1,5 95 - 0,0 18 1.024,6
19:18 15,7 7,7 11,5 59,0 1,6 94 - 0,0 18 1.024,6
19:17 15,8 7,8 11,6 59,0 1,6 94 - 0,0 19 1.024,5
19:16 15,8 7,8 11,6 59,0 1,7 93 - 0,0 19 1.024,5
19:15 15,8 7,7 11,6 58,6 1,7 93 - 0,0 21 1.024,5
19:14 15,9 7,6 11,6 58,0 1,7 93 - 0,0 22 1.024,5
19:13 15,9 7,6 11,6 58,0 1,6 92 - 0,0 24 1.024,5
19:12 16,0 7,7 11,7 58,0 1,6 92 - 0,0 23 1.024,5
19:11 16,0 7,7 11,7 58,0 1,6 92 - 0,0 23 1.024,5
19:10 16,1 7,8 11,7 57,7 1,6 91 - 0,0 24 1.024,5
19:09 16,1 7,6 11,6 57,0 1,6 91 - 0,0 25 1.024,4
19:08 16,1 7,6 11,6 57,0 1,7 91 - 0,0 26 1.024,4
19:07 16,2 7,7 11,7 57,0 1,9 91 - 0,0 31 1.024,4
19:06 16,2 7,7 11,7 57,0 2,1 91 - 0,0 36 1.024,4
19:05 16,2 7,6 11,7 56,8 2,3 91 - 0,0 34 1.024,5
19:04 16,3 7,5 11,7 56,0 2,4 92 - 0,0 35 1.024,4
19:03 16,4 7,6 11,7 56,0 2,4 93 - 0,0 35 1.024,4
19:02 16,4 7,6 11,7 56,0 2,3 94 - 0,0 33 1.024,3
19:01 16,5 7,5 11,7 55,3 2,2 95 - 0,0 37 1.024,4
19:00 16,6 7,8 11,9 55,9 2,0 96 - 0,0 46 1.024,4
 
18:59 16,6 7,5 11,8 55,0 1,9 97 - 0,0 55 1.024,3
18:58 16,6 7,5 11,8 55,0 1,8 98 - 0,0 57 1.024,4
18:57 16,7 7,6 11,9 55,0 1,9 99 - 0,0 60 1.024,3
18:56 16,8 7,5 11,9 54,4 2,1 99 - 0,0 62 1.024,3
18:55 16,8 7,7 11,9 55,0 2,4 100 - 0,0 56 1.024,3
18:54 16,9 7,8 12,0 54,9 2,8 100 - 0,0 38 1.024,3
18:53 16,9 7,5 11,9 54,0 2,9 101 - 0,0 35 1.024,3
18:52 17,0 7,6 12,0 54,0 2,8 101 - 0,0 36 1.024,3
18:51 17,0 7,6 12,0 54,0 2,8 102 - 0,0 39 1.024,3
18:50 17,1 7,7 12,1 54,0 2,7 102 - 0,0 40 1.024,3
18:49 17,1 7,7 12,1 54,0 2,5 103 - 0,0 43 1.024,3
18:48 17,2 7,6 12,0 53,1 2,2 103 - 0,0 56 1.024,2
18:47 17,3 7,7 12,1 53,3 2,1 103 - 0,0 68 1.024,2
18:46 17,4 8,0 12,3 54,0 2,1 103 - 0,0 66 1.024,2
18:45 17,4 7,9 12,2 53,5 2,2 103 - 0,0 67 1.024,2
18:44 17,5 8,0 12,3 53,7 2,2 103 - 0,0 66 1.024,2
18:43 17,6 8,2 12,5 54,0 2,2 103 - 0,0 80 1.024,2
18:42 17,6 8,2 12,5 54,0 2,2 102 - 0,0 98 1.024,2
18:41 17,5 8,1 12,4 54,0 2,2 102 - 0,0 120 1.024,3
18:40 17,5 8,1 12,4 54,0 2,2 102 - 0,0 113 1.024,3
18:39 17,4 8,0 12,3 54,0 2,3 102 - 0,0 93 1.024,3
18:38 17,4 7,8 12,2 53,3 2,4 101 - 0,0 98 1.024,2
18:37 17,5 7,6 12,1 52,2 2,5 101 - 0,0 127 1.024,2
18:36 17,7 7,8 12,3 52,2 2,6 101 - 0,0 130 1.024,2
18:35 17,8 8,1 12,5 53,0 2,6 101 - 0,0 147 1.024,1
18:34 17,9 8,2 12,6 53,0 2,6 100 - 0,0 150 1.024,1
18:33 17,9 8,2 12,6 53,0 2,5 100 - 0,0 155 1.024,2
18:32 17,9 8,2 12,6 53,0 2,2 99 - 0,0 114 1.024,1
18:31 17,8 8,1 12,5 53,0 1,8 98 - 0,0 164 1.024,1
18:30 17,8 8,1 12,5 53,2 1,6 98 - 0,0 173 1.024,1
18:29 17,7 8,3 12,6 54,0 1,5 97 - 0,0 183 1.024,1
18:28 17,5 8,2 12,5 54,5 1,4 97 - 0,0 192 1.024,1
18:27 17,3 8,0 12,3 54,4 1,5 96 - 0,0 195 1.024,1
18:26 17,2 7,8 12,1 54,0 1,7 96 - 0,0 192 1.024,0
18:25 17,2 7,8 12,1 53,8 2,0 95 - 0,0 188 1.024,1
18:24 17,3 7,4 12,0 52,2 2,2 95 - 0,0 183 1.024,1
18:23 17,4 7,8 12,2 53,4 2,4 94 - 0,0 179 1.024,0
18:22 17,4 8,0 12,3 54,0 2,6 94 - 0,0 178 1.024,1
18:21 17,4 7,8 12,2 53,4 2,9 93 - 0,0 176 1.024,0
18:19 17,4 8,0 12,3 53,9 3,1 93 - 0,0 173 1.024,0
18:18 17,3 8,0 12,2 54,2 3,1 92 - 0,0 174 1.024,0
18:17 17,2 8,1 12,3 55,0 3,1 92 - 0,0 177 1.024,0
18:16 17,0 7,9 12,1 55,0 3,1 92 - 0,0 179 1.024,0
18:15 16,9 7,6 11,9 54,4 3,0 91 - 0,0 181 1.024,0
18:14 16,9 7,3 11,8 53,2 2,7 91 - 0,0 184 1.023,9
18:13 17,1 7,5 11,9 53,2 2,5 91 - 0,0 184 1.023,9
18:12 17,1 7,9 12,1 54,6 2,5 90 - 0,0 183 1.023,9
18:11 17,0 7,6 12,0 54,0 2,6 90 - 0,0 185 1.023,9
18:10 16,9 7,7 12,0 54,5 2,7 90 - 0,0 191 1.023,9
18:09 16,9 7,6 11,9 54,4 2,8 90 - 0,0 199 1.023,9
18:08 16,8 7,2 11,7 53,2 2,9 89 - 0,0 198 1.023,9
18:07 16,9 7,5 11,9 53,8 3,1 89 - 0,0 195 1.023,8
18:06 16,9 7,1 11,6 52,3 3,3 89 - 0,0 192 1.023,8
18:05 17,1 7,3 11,9 52,6 3,4 89 - 0,0 193 1.023,9
18:04 17,3 7,3 11,9 52,0 3,4 89 - 0,0 199 1.023,9
18:03 17,5 7,7 12,2 52,7 3,2 89 - 0,0 199 1.023,9
18:02 17,5 8,1 12,4 53,9 3,1 89 - 0,0 195 1.023,9
18:01 17,3 7,7 12,1 53,1 2,9 89 - 0,0 206 1.023,8
18:00 17,4 7,7 12,2 53,0 2,6 89 - 0,0 220 1.023,8
 
17:59 17,5 7,8 12,2 53,0 2,3 89 - 0,0 221 1.023,8
17:58 17,5 8,0 12,3 53,6 2,0 89 - 0,0 221 1.023,8
17:57 17,4 8,2 12,4 54,7 1,7 90 - 0,0 236 1.023,8
17:56 17,2 7,9 12,2 54,2 1,6 90 - 0,0 235 1.023,8
17:55 17,1 7,5 11,9 53,1 1,6 91 - 0,0 233 1.023,8
17:54 17,1 7,4 11,9 52,7 1,7 91 - 0,0 236 1.023,8
17:53 17,1 7,3 11,8 52,5 2,0 91 - 0,0 239 1.023,8
17:52 17,2 7,5 12,0 53,0 2,3 91 - 0,0 239 1.023,8
17:51 17,2 7,8 12,1 53,9 2,5 91 - 0,0 241 1.023,8
17:50 17,1 7,7 12,1 54,0 2,6 90 - 0,0 239 1.023,7
17:49 16,9 7,5 11,9 54,0 2,8 90 - 0,0 227 1.023,7
17:48 16,8 7,4 11,8 53,7 3,0 90 - 0,0 227 1.023,8
17:47 16,7 7,1 11,6 53,0 3,2 90 - 0,0 241 1.023,7
17:46 16,8 7,2 11,7 53,0 3,4 90 - 0,0 240 1.023,7
17:45 16,9 7,3 11,7 53,0 3,7 90 - 0,0 243 1.023,7
17:44 16,9 7,3 11,7 53,0 3,9 91 - 0,0 212 1.023,7
17:43 17,0 7,3 11,8 52,8 4,0 91 - 0,0 156 1.023,7
17:42 17,1 7,2 11,8 52,0 4,0 91 - 0,0 210 1.023,6
17:41 17,3 7,2 11,9 51,5 4,0 92 - 0,0 194 1.023,6
17:40 17,5 7,2 12,0 51,0 3,9 91 - 0,0 250 1.023,6
17:39 17,8 8,0 12,4 52,5 3,7 91 - 0,0 253 1.023,6
17:38 17,8 8,3 12,6 53,9 3,4 90 - 0,0 250 1.023,6
17:37 17,7 8,3 12,6 54,0 3,2 90 - 0,0 248 1.023,6
17:36 17,6 8,2 12,5 54,0 3,0 89 - 0,0 253 1.023,5
17:35 17,5 8,1 12,4 54,0 2,8 88 - 0,0 258 1.023,5
17:34 17,5 7,9 12,3 53,4 2,6 88 - 0,0 268 1.023,4
17:33 17,5 7,6 12,1 52,2 2,5 88 - 0,0 278 1.023,4
17:32 17,5 7,8 12,2 53,0 2,5 88 - 0,0 278 1.023,5
17:31 17,4 7,7 12,2 53,0 2,5 89 - 0,0 281 1.023,5
17:30 17,3 7,6 12,1 53,0 2,7 89 - 0,0 291 1.023,5
17:29 17,2 7,7 12,1 53,5 2,9 90 - 0,0 291 1.023,5
17:28 17,1 7,4 11,9 52,7 3,2 90 - 0,0 279 1.023,5
17:27 17,3 7,1 11,8 51,2 3,5 89 - 0,0 289 1.023,4
17:26 17,6 7,4 12,0 51,1 3,7 89 - 0,0 288 1.023,4
17:25 17,7 7,8 12,3 52,3 3,7 89 - 0,0 295 1.023,4
17:24 17,7 7,9 12,3 52,6 3,6 88 - 0,0 301 1.023,4
17:23 17,7 7,9 12,4 52,7 3,5 88 - 0,0 313 1.023,4
17:22 17,6 8,1 12,4 53,8 3,5 87 - 0,0 321 1.023,4
17:21 17,5 7,9 12,3 53,4 3,4 87 - 0,0 325 1.023,3
17:20 17,5 7,6 12,1 52,3 3,4 88 - 0,0 325 1.023,3
17:19 17,5 7,8 12,2 52,8 3,4 88 - 0,0 325 1.023,4
17:18 17,6 7,7 12,2 52,4 3,6 88 - 0,0 329 1.023,4
17:17 17,6 7,9 12,3 53,0 3,6 89 - 0,0 334 1.023,4
17:16 17,5 8,0 12,3 53,7 3,6 90 - 0,0 340 1.023,4
17:15 17,4 8,0 12,3 54,0 3,5 90 - 0,0 345 1.023,3
17:14 17,3 7,9 12,2 53,9 3,5 90 - 0,0 348 1.023,3
17:13 17,2 7,6 12,0 53,4 3,4 91 - 0,0 348 1.023,4
17:12 17,2 7,7 12,1 53,6 3,4 91 - 0,0 346 1.023,3
17:11 17,3 7,5 12,0 52,4 3,3 90 - 0,0 347 1.023,4
17:10 17,4 7,4 12,0 52,0 3,3 90 - 0,0 338 1.023,3
17:09 17,5 7,6 12,1 52,1 3,3 91 - 0,0 343 1.023,3
17:08 17,5 7,8 12,3 53,1 3,3 91 - 0,0 348 1.023,3
17:07 17,4 8,0 12,3 54,0 3,4 92 - 0,0 341 1.023,3
17:06 17,3 7,8 12,2 53,6 3,6 92 - 0,0 338 1.023,3
17:05 17,3 7,4 12,0 52,3 3,7 93 - 0,0 109 1.023,4
17:04 17,5 7,5 12,1 52,0 3,7 94 - 0,0 102 1.023,4
17:03 17,7 8,0 12,4 52,9 3,7 94 - 0,0 197 1.023,3
17:02 17,8 8,1 12,5 53,0 3,4 94 - 0,0 295 1.023,3
17:01 17,9 8,3 12,6 53,4 2,7 94 - 0,0 289 1.023,3
17:00 17,9 8,5 12,7 54,0 2,1 94 - 0,0 282 1.023,2
 
16:59 17,8 8,2 12,6 53,4 1,7 93 - 0,0 281 1.023,2
16:58 17,7 8,4 12,6 54,5 1,7 93 - 0,0 281 1.023,2
16:57 17,6 8,2 12,5 54,2 1,7 93 - 0,0 281 1.023,2
16:56 17,5 8,3 12,5 54,8 1,9 92 - 0,0 316 1.023,2
16:55 17,4 8,0 12,3 54,0 2,5 92 - 0,0 347 1.023,2
16:54 17,4 8,0 12,3 54,0 3,2 93 - 0,0 352 1.023,1
16:53 17,4 7,8 12,2 53,4 3,5 93 - 0,0 358 1.023,1
16:52 17,5 7,6 12,1 52,2 3,6 93 - 0,0 363 1.023,1
16:51 17,7 7,7 12,3 52,0 3,6 94 - 0,0 349 1.023,1
16:50 17,9 7,8 12,4 51,6 3,6 94 - 0,0 326 1.023,1
16:49 18,1 7,9 12,5 51,4 3,5 95 - 0,0 334 1.023,2
16:48 18,2 8,3 12,8 52,5 3,4 95 - 0,0 351 1.023,1
16:47 18,1 8,4 12,7 53,0 3,5 95 - 0,0 354 1.023,2
16:46 18,0 8,0 12,5 52,1 3,8 95 - 0,0 313 1.023,1
16:45 18,0 8,0 12,5 52,0 4,2 96 - 0,0 202 1.023,1
16:44 18,0 7,9 12,5 51,8 4,6 96 - 0,0 225 1.023,1
16:43 18,1 7,8 12,4 51,0 4,8 97 - 0,0 312 1.023,1
16:42 18,3 8,2 12,7 51,6 4,7 97 - 0,0 338 1.023,1
16:41 18,4 8,6 12,9 52,7 4,0 98 - 0,0 378 1.023,1
16:40 18,2 8,5 12,8 53,0 3,2 98 - 0,0 378 1.023,1
16:39 18,1 8,6 12,9 54,0 2,5 99 - 0,0 377 1.023,1
16:38 18,0 8,6 12,8 54,0 2,1 99 - 0,0 336 1.023,1
16:37 17,9 8,4 12,7 53,6 1,8 100 - 0,0 350 1.023,1
16:36 17,9 8,4 12,7 53,6 1,9 100 - 0,0 372 1.023,1
16:35 17,8 8,2 12,5 53,3 2,4 100 - 0,0 394 1.023,1
16:34 17,8 8,1 12,5 53,0 3,0 99 - 0,0 397 1.023,1
16:33 17,8 8,3 12,6 53,8 3,3 99 - 0,0 401 1.023,2
16:32 17,7 8,0 12,4 53,0 3,4 99 - 0,0 399 1.023,1
16:31 17,7 8,1 12,5 53,5 3,6 99 - 0,0 393 1.023,2
16:30 17,7 8,3 12,6 54,0 3,6 98 - 0,0 402 1.023,2
16:29 17,7 8,1 12,5 53,3 3,6 98 - 0,0 413 1.023,2
16:28 17,8 8,0 12,4 52,6 3,6 97 - 0,0 395 1.023,2
16:27 17,9 8,4 12,7 53,9 3,6 97 - 0,0 357 1.023,2
16:26 18,0 8,3 12,7 53,0 3,4 97 - 0,0 357 1.023,3
16:25 18,0 8,4 12,7 53,5 3,2 96 - 0,0 400 1.023,3
16:24 18,1 8,6 12,9 54,0 3,1 96 - 0,0 419 1.023,3
16:23 18,1 8,6 12,9 54,0 2,9 97 - 0,0 350 1.023,3
16:22 18,1 8,6 12,9 54,0 2,6 97 - 0,0 350 1.023,3
16:21 18,1 8,6 12,9 54,0 2,4 97 - 0,0 395 1.023,3
16:20 18,1 8,8 13,0 54,4 2,2 97 - 0,0 446 1.023,3
16:19 18,0 8,8 13,0 55,0 2,0 97 - 0,0 420 1.023,3
16:18 17,9 8,9 13,0 55,6 2,1 97 - 0,0 459 1.023,2
16:17 17,8 8,9 12,9 56,0 2,3 96 - 0,0 459 1.023,2
16:16 17,6 8,2 12,5 54,2 2,4 96 - 0,0 446 1.023,1
16:15 17,8 8,1 12,5 53,0 2,5 96 - 0,0 436 1.023,2
16:14 18,0 8,5 12,8 53,7 2,7 96 - 0,0 441 1.023,2
16:13 18,1 8,9 13,0 55,0 2,6 97 - 0,0 325 1.023,2
16:12 18,0 8,8 13,0 55,0 2,1 97 - 0,0 304 1.023,1
16:11 17,9 8,7 12,9 55,0 1,6 98 - 0,0 363 1.023,1
16:10 17,8 8,6 12,8 55,0 1,4 98 - 0,0 499 1.023,1
16:09 17,8 8,6 12,8 55,0 1,5 99 - 0,0 499 1.023,0
16:08 17,9 8,7 12,9 55,0 1,9 101 - 0,0 502 1.023,1
16:07 17,9 8,6 12,8 54,5 2,5 102 - 0,0 500 1.023,0
16:06 18,0 8,6 12,8 54,0 3,2 103 - 0,0 483 1.023,0
16:05 18,2 8,7 13,0 54,0 3,7 104 - 0,0 350 1.023,0
16:04 18,3 8,9 13,1 54,1 3,7 104 - 0,0 171 1.023,0
16:03 18,4 9,2 13,3 55,0 3,3 105 - 0,0 362 1.023,0
16:02 18,3 9,2 13,3 55,4 2,6 106 - 0,0 490 1.023,0
16:01 18,2 9,1 13,2 55,5 2,0 107 - 0,0 506 1.023,0
16:00 18,2 9,0 13,1 55,0 1,5 108 - 0,0 508 1.022,9
 
15:59 18,2 9,0 13,1 55,0 1,2 109 - 0,0 506 1.022,9
15:58 18,2 9,0 13,1 55,0 1,1 111 - 0,0 504 1.022,9
15:57 18,2 9,0 13,1 55,0 1,2 113 - 0,0 423 1.023,0
15:56 18,2 9,0 13,1 55,0 1,4 116 - 0,0 367 1.022,9
15:55 18,3 9,1 13,2 55,0 1,4 119 - 0,0 294 1.022,9
15:54 18,3 9,1 13,2 55,0 1,3 122 - 0,0 333 1.022,9
15:52 18,4 9,2 13,3 55,0 1,1 126 - 0,0 496 1.022,8
15:51 18,3 9,1 13,2 55,0 0,9 129 - 0,0 492 1.022,8
15:50 18,3 9,1 13,2 55,0 0,7 133 - 0,0 492 1.022,9
15:49 18,1 9,1 13,1 55,7 0,7 136 - 0,0 497 1.022,8
15:48 18,0 9,1 13,1 56,0 0,7 139 - 0,0 497 1.022,9
15:47 17,9 9,0 13,0 56,0 0,7 142 - 0,0 503 1.022,9
15:46 17,8 8,9 12,9 56,0 0,6 145 - 0,0 504 1.022,9
15:45 17,7 8,8 12,8 56,0 0,3 147 - 0,0 507 1.022,8
15:44 17,7 8,9 12,9 56,5 0,1 148 - 0,0 511 1.022,8
15:43 17,6 9,0 12,9 57,0 0,4 148 - 0,0 521 1.022,8
15:42 17,5 8,9 12,8 57,0 0,6 147 - 0,0 526 1.022,9
15:41 17,4 9,0 12,9 57,9 0,4 143 - 0,0 434 1.022,9
15:40 17,3 9,0 12,8 58,0 0,3 139 - 0,0 323 1.022,9
15:39 17,1 8,8 12,6 58,0 0,7 135 - 0,0 323 1.022,9
15:38 17,1 8,9 12,7 58,5 1,4 131 - 0,0 323 1.022,9
15:37 17,0 8,9 12,7 59,0 1,9 128 - 0,0 323 1.022,9
15:36 17,0 8,9 12,7 59,0 2,1 125 - 0,0 311 1.023,0
15:35 17,0 8,7 12,5 58,1 1,9 124 - 0,0 252 1.023,0
15:34 17,0 8,7 12,5 58,0 1,7 123 - 0,0 214 1.023,0
15:33 17,0 8,7 12,5 58,0 1,6 122 - 0,0 197 1.023,0
15:32 17,1 8,8 12,6 58,0 1,6 121 - 0,0 191 1.022,9
15:31 17,1 8,8 12,6 58,0 1,5 120 - 0,0 186 1.023,0
15:30 17,1 8,8 12,6 58,0 1,2 117 - 0,0 182 1.023,0
15:29 17,2 8,9 12,7 58,0 0,9 113 - 0,0 178 1.023,1
15:28 17,2 8,9 12,7 58,3 0,5 109 - 0,0 172 1.023,1
15:27 17,2 9,0 12,8 58,6 0,3 105 - 0,0 164 1.023,1
15:26 17,1 8,8 12,6 58,0 0,3 102 - 0,0 159 1.023,0
15:25 17,2 8,9 12,7 58,0 0,3 100 - 0,0 155 1.023,1
15:24 17,2 8,9 12,7 58,0 0,2 99 - 0,0 152 1.023,0
15:23 17,2 8,8 12,7 57,9 0,1 99 - 0,0 152 1.023,0
15:22 17,2 8,6 12,6 57,0 0,1 100 - 0,0 155 1.023,0
15:21 17,2 8,6 12,6 57,0 0,6 102 - 0,0 159 1.023,0
15:20 17,2 8,5 12,5 56,5 1,3 104 - 0,0 165 1.023,0
15:19 17,2 8,3 12,4 56,0 1,8 105 - 0,0 172 1.023,0
15:18 17,3 8,4 12,5 56,0 2,4 106 - 0,0 178 1.023,0
15:17 17,3 8,4 12,5 56,0 2,9 106 - 0,0 184 1.022,9
15:16 17,4 8,4 12,5 55,5 3,3 106 - 0,0 195 1.023,0
15:15 17,6 8,2 12,5 54,0 3,3 106 - 0,0 212 1.023,0
15:14 17,8 8,4 12,6 54,0 3,1 106 - 0,0 233 1.023,0
15:13 17,9 8,8 12,9 55,4 3,0 106 - 0,0 250 1.023,0
15:12 17,9 9,0 13,0 56,0 3,2 106 - 0,0 267 1.023,0
15:11 18,0 8,9 13,0 55,1 3,5 106 - 0,0 272 1.023,0
15:10 18,0 8,8 13,0 55,0 3,7 106 - 0,0 263 1.023,0
15:09 18,1 9,1 13,1 55,5 4,0 105 - 0,0 288 1.023,0
15:08 18,2 9,3 13,3 56,0 4,1 105 - 0,0 301 1.023,0
15:07 18,2 9,3 13,3 56,0 3,8 105 - 0,0 315 1.022,9
15:06 18,2 9,3 13,3 56,0 3,2 105 - 0,0 315 1.022,9
15:05 18,3 9,6 13,5 56,8 2,5 105 - 0,0 315 1.022,9
15:04 18,3 9,4 13,4 56,0 1,9 105 - 0,0 315 1.022,9
15:03 18,5 9,5 13,5 55,6 1,3 105 - 0,0 265 1.022,8
15:02 18,7 9,5 13,5 55,0 0,9 106 - 0,0 229 1.022,8
15:01 18,9 9,5 13,6 54,3 0,7 107 - 0,0 206 1.022,9
15:00 19,0 9,5 13,7 54,1 0,6 109 - 0,0 202 1.022,9
 
14:59 19,1 9,8 13,9 55,0 0,3 113 - 0,0 402 1.022,9
14:58 19,1 9,8 13,9 55,0 0,2 118 - 0,0 566 1.022,9
14:57 19,1 9,8 13,9 55,0 0,2 126 - 0,0 566 1.022,9
14:56 19,1 9,8 13,9 55,0 0,2 135 - 0,0 566 1.022,8
14:55 18,9 9,7 13,7 55,0 0,5 145 - 0,0 583 1.022,8
14:54 18,8 9,3 13,5 54,1 0,6 152 - 0,0 610 1.022,8
14:53 18,7 9,2 13,4 54,0 0,7 155 - 0,0 575 1.022,8
14:52 18,7 9,2 13,4 54,0 0,8 155 - 0,0 575 1.022,8
14:51 18,6 9,1 13,3 54,0 0,9 152 - 0,0 571 1.022,8
14:50 18,4 9,1 13,2 54,7 1,1 148 - 0,0 571 1.022,8
14:49 18,4 9,2 13,3 55,0 1,3 144 - 0,0 572 1.022,8
14:48 18,3 8,9 13,1 54,1 1,3 141 - 0,0 574 1.022,8
14:47 18,3 8,9 13,1 54,3 1,2 138 - 0,0 566 1.022,8
14:46 18,3 9,1 13,2 55,0 1,1 136 - 0,0 567 1.022,9
14:45 18,3 9,0 13,1 54,5 1,2 134 - 0,0 566 1.022,9
14:44 18,2 8,9 13,1 54,7 1,4 132 - 0,0 573 1.022,9
14:43 18,2 8,8 13,0 54,2 1,5 131 - 0,0 574 1.022,9
14:42 18,2 8,7 13,0 54,0 1,8 129 - 0,0 572 1.022,9
14:41 18,2 8,9 13,0 54,5 2,1 127 - 0,0 561 1.022,8
14:40 18,1 9,2 13,2 56,0 2,2 126 - 0,0 558 1.022,8
14:39 18,1 9,1 13,1 55,5 1,8 124 - 0,0 563 1.022,8
14:38 18,1 8,9 13,0 55,0 1,3 122 - 0,0 562 1.022,9
14:37 18,1 9,2 13,2 55,9 1,0 119 - 0,0 559 1.022,8
14:36 18,2 9,1 13,2 55,2 0,6 116 - 0,0 557 1.022,8
14:35 18,2 9,3 13,3 56,0 0,4 113 - 0,0 548 1.022,8
14:34 18,2 9,3 13,3 56,0 0,5 109 - 0,0 546 1.022,8
14:33 18,2 9,3 13,3 56,0 0,7 106 - 0,0 560 1.022,8
14:32 17,9 9,2 13,1 56,7 1,0 104 - 0,0 563 1.022,7
14:31 17,7 9,1 13,0 57,0 1,3 102 - 0,0 563 1.022,7
14:30 17,8 9,4 13,2 58,0 1,8 100 - 0,0 562 1.022,8
14:29 17,3 8,8 12,7 57,4 2,3 99 - 0,0 556 1.022,7
14:28 17,3 8,7 12,6 56,9 2,6 98 - 0,0 554 1.022,7
14:27 17,3 9,0 12,8 58,0 2,9 98 - 0,0 561 1.022,7
14:26 17,3 8,8 12,7 57,3 3,3 97 - 0,0 563 1.022,7
14:25 17,4 8,6 12,6 56,1 3,6 97 - 0,0 561 1.022,7
14:24 17,6 9,0 12,9 57,1 3,8 97 - 0,0 560 1.022,7
14:23 17,6 9,2 13,1 58,0 3,7 97 - 0,0 564 1.022,7
14:22 17,6 9,4 13,1 58,5 3,5 97 - 0,0 563 1.022,7
14:21 17,3 9,2 12,9 59,0 3,4 98 - 0,0 560 1.022,7
14:20 17,3 9,2 12,9 59,0 3,4 98 - 0,0 568 1.022,6
14:19 17,2 - - - - - - - - -
14:18 16,8 8,5 12,4 58,2 3,4 98 - 0,0 564 1.022,6
14:17 16,8 8,7 12,5 59,0 3,5 99 - 0,0 575 1.022,7
14:16 16,5 8,5 12,2 59,0 3,7 99 - 0,0 578 1.022,6
14:15 16,6 8,6 12,3 59,0 3,6 100 - 0,0 508 1.022,5
14:14 16,3 8,3 12,1 59,0 3,2 101 - 0,0 109 1.022,5
14:13 16,3 8,3 12,1 59,0 2,5 102 - 0,0 109 1.022,6
14:12 16,4 8,4 12,1 59,0 2,0 103 - 0,0 114 1.022,6
14:11 16,4 8,4 12,1 59,0 1,5 103 - 0,0 134 1.022,7
14:10 16,4 8,4 12,1 59,0 1,2 104 - 0,0 167 1.022,6
14:09 16,4 8,4 12,1 59,0 1,1 104 - 0,0 219 1.022,6
14:08 16,4 8,4 12,1 59,0 1,7 104 - 0,0 224 1.022,6
14:07 16,4 8,3 12,1 58,9 2,6 104 - 0,0 235 1.022,6
14:06 16,4 8,1 12,0 58,0 3,3 103 - 0,0 244 1.022,6
14:05 16,4 8,1 12,0 58,0 3,8 102 - 0,0 255 1.022,6
14:04 16,4 8,2 12,1 58,5 4,1 101 - 0,0 267 1.022,7
14:03 16,4 8,4 12,1 59,0 4,2 100 - 0,0 283 1.022,6
14:02 16,4 8,2 12,0 58,2 3,6 99 - 0,0 301 1.022,6
14:01 16,4 8,4 12,1 59,0 2,9 98 - 0,0 311 1.022,7
14:00 16,4 8,4 12,2 59,3 2,5 97 - 0,0 319 1.022,7
 
13:59 16,4 8,6 12,3 60,0 2,4 97 - 0,0 301 1.022,7
13:58 16,3 8,4 12,1 59,5 2,4 96 - 0,0 286 1.022,7
13:57 16,3 8,4 12,2 59,7 2,6 95 - 0,0 278 1.022,6
13:56 16,3 8,5 12,2 60,0 2,9 95 - 0,0 275 1.022,6
13:55 16,3 8,3 12,1 59,1 3,4 94 - 0,0 268 1.022,6
13:54 16,3 8,3 12,1 59,3 3,6 94 - 0,0 261 1.022,6
13:53 16,4 8,6 12,3 60,0 3,6 93 - 0,0 254 1.022,6
13:52 16,3 8,5 12,2 60,0 3,6 93 - 0,0 250 1.022,6
13:51 16,3 8,3 12,1 59,3 3,7 93 - 0,0 251 1.022,6
13:50 16,3 8,5 12,2 59,9 3,8 93 - 0,0 254 1.022,6
13:49 16,3 8,5 12,2 60,0 3,6 94 - 0,0 257 1.022,6
13:48 16,3 8,5 12,2 60,0 3,2 94 - 0,0 257 1.022,6
13:47 16,3 8,5 12,2 60,0 2,9 95 - 0,0 258 1.022,5
13:46 16,2 8,4 12,1 60,0 2,8 97 - 0,0 264 1.022,6
13:45 16,2 8,4 12,1 60,0 2,7 98 - 0,0 272 1.022,7
13:44 16,2 8,4 12,1 60,0 2,7 99 - 0,0 275 1.022,6
13:43 16,1 8,3 12,0 60,0 3,0 101 - 0,0 267 1.022,6
13:42 16,1 8,3 12,0 59,7 3,4 102 - 0,0 255 1.022,7
13:41 16,0 8,0 11,8 59,0 3,7 103 - 0,0 245 1.022,6
13:40 16,0 8,1 11,9 59,6 3,8 104 - 0,0 233 1.022,6
13:39 16,0 8,1 11,8 59,3 3,8 105 - 0,0 230 1.022,6
13:38 16,0 8,1 11,9 59,4 3,9 106 - 0,0 221 1.022,6
13:37 16,0 8,1 11,9 59,6 4,1 106 - 0,0 214 1.022,6
13:36 16,1 8,2 11,9 59,4 4,1 107 - 0,0 208 1.022,6
13:35 16,1 8,5 12,1 60,5 3,7 108 - 0,0 203 1.022,6
13:34 16,1 8,6 12,2 61,0 2,9 108 - 0,0 196 1.022,6
13:33 16,1 8,6 12,2 61,0 2,4 109 - 0,0 186 1.022,6
13:32 16,2 8,7 12,2 61,0 2,0 109 - 0,0 175 1.022,5
13:31 16,2 8,7 12,2 61,0 1,8 109 - 0,0 161 1.022,5
13:30 16,2 8,7 12,2 61,0 1,8 108 - 0,0 155 1.022,5
13:29 16,2 8,8 12,3 61,5 2,1 107 - 0,0 153 1.022,4
13:28 16,2 8,8 12,3 61,4 2,4 106 - 0,0 159 1.022,5
13:27 16,3 9,0 12,4 61,8 2,4 105 - 0,0 169 1.022,5
13:26 16,3 8,8 12,3 61,1 2,1 103 - 0,0 178 1.022,4
13:25 16,3 8,8 12,3 61,0 1,9 101 - 0,0 187 1.022,5
13:24 16,3 8,8 12,3 61,0 1,8 100 - 0,0 194 1.022,5
13:23 16,3 8,8 12,3 61,0 1,7 100 - 0,0 199 1.022,4
13:22 16,3 8,8 12,3 61,0 1,8 100 - 0,0 207 1.022,4
13:21 16,3 8,8 12,3 61,0 1,9 101 - 0,0 215 1.022,5
13:20 16,3 9,0 12,5 62,0 2,1 102 - 0,0 227 1.022,5
13:19 16,2 9,0 12,4 62,3 2,2 104 - 0,0 237 1.022,4
13:18 16,2 9,1 12,5 63,0 2,3 106 - 0,0 238 1.022,4
13:17 16,2 9,0 12,4 62,5 2,4 108 - 0,0 230 1.022,4
13:16 16,2 8,7 12,3 61,2 2,5 110 - 0,0 221 1.022,4
13:15 16,2 8,9 12,4 61,9 2,3 113 - 0,0 211 1.022,4
13:14 16,2 8,7 12,3 61,1 2,1 115 - 0,0 206 1.022,3
13:13 16,2 8,7 12,2 61,0 1,9 117 - 0,0 195 1.022,4
13:12 16,2 8,7 12,2 61,0 1,5 120 - 0,0 185 1.022,3
13:11 16,2 8,5 12,2 60,5 1,4 122 - 0,0 176 1.022,4
13:10 16,2 8,4 12,1 60,0 1,4 124 - 0,0 167 1.022,3
13:09 16,3 8,7 12,3 60,9 1,6 126 - 0,0 159 1.022,4
13:08 16,3 8,8 12,3 61,0 1,7 128 - 0,0 156 1.022,3
13:07 16,3 8,8 12,3 61,0 1,7 130 - 0,0 160 1.022,2
13:06 16,3 8,8 12,3 61,0 1,7 132 - 0,0 166 1.022,2
13:05 16,3 8,8 12,3 61,0 1,7 133 - 0,0 171 1.022,3
13:04 16,3 8,8 12,3 61,0 1,7 135 - 0,0 170 1.022,2
13:03 16,3 8,8 12,3 61,0 1,8 136 - 0,0 165 1.022,2
13:02 16,3 8,8 12,3 61,0 2,0 137 - 0,0 161 1.022,2
13:01 16,3 8,8 12,3 61,0 2,2 138 - 0,0 162 1.022,2
13:00 16,4 8,9 12,4 61,0 2,4 139 - 0,0 172 1.022,2
 
12:59 16,4 8,9 12,4 61,0 2,4 140 - 0,0 194 1.022,2
12:58 16,4 8,9 12,4 61,0 2,1 140 - 0,0 222 1.022,2
12:57 16,3 9,2 12,6 62,8 1,7 140 - 0,0 436 1.022,1
12:56 16,3 9,0 12,5 62,0 1,3 140 - 0,0 735 1.022,2
12:55 16,2 8,9 12,4 62,0 0,9 139 - 0,0 396 1.022,1
12:54 16,2 8,9 12,4 62,0 0,6 137 - 0,0 250 1.022,1
12:53 16,2 8,9 12,4 62,0 0,5 135 - 0,0 234 1.022,1
12:52 16,2 9,1 12,5 62,8 0,6 132 - 0,0 223 1.022,1
12:51 16,3 9,2 12,6 63,0 0,7 128 - 0,0 223 1.022,1
12:50 16,3 9,3 12,6 63,2 0,6 125 - 0,0 235 1.022,1
12:49 16,3 9,4 12,7 63,7 0,6 121 - 0,0 291 1.022,2
12:48 16,3 9,4 12,7 63,5 1,1 117 - 0,0 277 1.022,1
12:47 16,3 9,3 12,7 63,4 1,5 113 - 0,0 251 1.022,1
12:46 16,3 9,2 12,6 63,0 1,8 109 - 0,0 217 1.022,1
12:44 16,4 9,1 12,6 62,0 2,2 106 - 0,0 199 1.022,1
12:43 16,4 9,1 12,6 62,0 2,4 102 - 0,0 196 1.022,0
12:42 16,4 9,1 12,6 62,0 2,3 99 - 0,0 195 1.022,1
12:41 16,4 9,3 12,7 62,7 2,1 95 - 0,0 301 1.022,1
12:40 16,4 9,3 12,7 63,0 2,2 93 - 0,0 707 1.022,1
12:39 16,4 9,5 12,8 63,8 2,4 90 - 0,0 707 1.022,1
12:38 16,3 9,4 12,7 63,5 2,6 88 - 0,0 703 1.021,9
12:37 16,0 9,4 12,6 65,0 2,8 87 10,7 0,0 700 1.022,1
12:36 16,0 9,3 12,5 64,5 3,1 85 10,7 0,0 483 1.022,1
12:35 16,0 9,2 12,5 64,0 3,4 84 - 0,0 414 1.022,1
12:34 16,0 9,2 12,5 64,0 3,5 84 - 0,0 278 1.022,1
12:33 15,9 9,3 12,5 65,0 3,6 83 - 0,0 464 1.022,1
12:32 15,9 9,3 12,5 65,0 3,7 83 - 0,0 691 1.022,2
12:31 15,8 9,2 12,4 65,0 3,7 83 - 0,0 708 1.022,1
12:30 15,8 9,2 12,4 65,0 3,6 83 - 0,0 284 1.022,2
12:29 15,8 9,1 12,3 64,3 3,5 83 - 0,0 236 1.022,1
12:28 15,8 9,0 12,3 64,0 3,4 83 - 0,0 228 1.022,1
12:27 15,9 9,1 12,4 64,0 3,5 83 - 0,0 209 1.022,1
12:26 16,0 9,2 12,5 64,0 3,6 84 - 0,0 201 1.022,1
12:25 16,1 9,3 12,6 64,0 3,5 85 - 0,0 194 1.022,1
12:24 16,2 9,6 12,8 64,8 3,3 87 - 0,0 576 1.022,1
12:23 16,2 10,0 13,0 66,5 2,9 89 - 0,0 596 1.022,1
12:22 16,2 10,1 13,0 67,0 2,5 91 - 0,0 596 1.022,1
12:21 16,2 10,1 13,0 67,0 1,9 93 - 0,0 596 1.022,1
12:20 16,1 10,0 13,0 67,0 1,4 95 - 0,0 592 1.022,1
12:19 15,9 9,8 12,8 67,0 1,1 98 - 0,0 593 1.022,2
12:18 15,9 9,6 12,7 66,4 1,1 100 - 0,0 587 1.022,2
12:17 15,8 9,5 12,5 66,0 1,2 102 - 0,0 581 1.022,2
12:16 15,8 9,7 12,7 66,9 1,4 103 - 0,0 403 1.022,2
12:15 15,8 9,7 12,7 67,0 1,8 105 - 0,0 153 1.022,2
12:14 15,7 9,5 12,5 66,7 2,4 106 - 0,0 445 1.022,2
12:13 15,6 9,3 12,4 66,0 3,0 107 - 0,0 570 1.022,2
12:12 15,7 9,4 12,5 66,0 3,3 108 - 0,0 569 1.022,2
12:11 15,6 9,3 12,4 66,0 3,4 108 9,8 0,0 564 1.022,1
12:10 15,6 9,3 12,4 66,0 3,5 108 9,8 0,0 554 1.022,2
12:09 15,5 9,2 12,3 66,0 3,5 107 - 0,0 562 1.022,1
12:08 15,5 9,2 12,3 66,0 3,4 106 - 0,0 559 1.022,1
12:07 15,5 9,2 12,3 66,0 3,5 105 - 0,0 573 1.022,1
12:06 15,4 9,1 12,2 66,0 3,8 104 - 0,0 539 1.022,2
12:05 15,4 9,1 12,2 65,9 4,1 103 - 0,0 427 1.022,1
12:04 15,4 8,9 12,1 65,0 4,3 103 - 0,0 434 1.022,2
12:03 15,4 8,9 12,1 65,0 4,3 102 - 0,0 457 1.022,1
12:02 15,4 8,9 12,1 65,0 4,4 101 - 0,0 407 1.022,2
12:01 15,4 8,7 12,0 64,5 4,5 100 - 0,0 381 1.022,2
12:00 15,4 8,8 12,0 64,7 4,6 100 - 0,0 331 1.022,1
 
11:59 15,4 8,9 12,1 65,0 4,8 99 - 0,0 379 1.022,1
11:58 15,5 8,7 12,0 64,1 5,1 98 - 0,0 429 1.022,1
11:57 15,5 8,8 12,1 64,3 5,3 97 - 0,0 429 1.022,2
11:56 15,5 9,0 12,2 65,4 5,1 96 - 0,0 433 1.022,1
11:55 15,6 9,3 12,4 66,0 4,7 95 - 0,0 357 1.022,1
11:54 15,6 9,4 12,5 66,7 4,1 94 - 0,0 329 1.022,1
11:53 15,5 9,4 12,4 67,0 3,5 93 - 0,0 344 1.022,1
11:52 15,6 9,3 12,4 66,1 2,8 93 - 0,0 329 1.022,1
11:51 15,5 9,2 12,3 66,0 2,1 93 - 0,0 369 1.022,1
11:50 15,4 9,1 12,2 66,0 1,8 93 - 0,0 367 1.022,1
11:49 15,4 9,1 12,2 66,0 2,0 94 - 0,0 353 1.022,1
11:48 15,4 9,1 12,2 66,0 2,6 95 - 0,0 302 1.022,1
11:47 15,4 9,0 12,1 65,7 3,1 96 - 0,0 275 1.022,1
11:46 15,3 8,9 12,0 65,5 3,4 98 - 0,0 269 1.022,1
11:45 15,3 9,0 12,1 66,0 3,6 101 - 0,0 270 1.022,1
11:44 15,1 8,9 12,0 66,5 3,4 104 - 0,0 248 1.022,1
11:43 15,2 9,1 12,1 67,0 2,9 107 - 0,0 240 1.022,1
11:42 15,1 9,0 12,0 67,0 2,3 110 - 0,0 215 1.022,1
11:41 15,1 9,0 12,0 67,0 1,9 114 - 0,0 198 1.022,1
11:40 15,0 8,9 11,9 67,0 1,8 116 - 0,0 182 1.022,1
11:39 15,0 8,9 11,9 67,0 1,7 118 - 0,0 160 1.022,0
11:38 14,9 8,8 11,8 67,0 1,7 120 - 0,0 153 1.022,0
11:37 14,9 8,8 11,8 67,0 1,7 121 - 0,0 141 1.022,0
11:36 14,9 8,8 11,8 67,0 1,5 122 - 0,0 124 1.022,1
11:35 14,9 8,8 11,8 67,0 1,4 123 - 0,0 113 1.022,1
11:34 14,8 8,7 11,8 67,0 1,3 124 - 0,0 106 1.022,0
11:33 14,8 8,7 11,8 67,0 1,1 125 - 0,0 103 1.022,0
11:32 14,8 8,7 11,8 67,0 0,9 125 - 0,0 102 1.022,1
11:31 14,8 8,6 11,7 66,4 1,0 124 - 0,0 100 1.022,1
11:30 14,8 8,5 11,6 66,0 1,7 123 - 0,0 98 1.022,0
11:29 14,7 8,6 11,6 66,9 2,5 122 - 0,0 96 1.022,0
11:28 14,7 8,7 11,7 67,2 2,9 120 - 0,0 94 1.022,1
11:27 14,6 8,8 11,7 68,0 3,0 119 - 0,0 92 1.022,1
11:26 14,7 8,9 11,8 68,0 2,5 117 - 0,0 90 1.022,0
11:25 14,6 8,8 11,7 68,0 1,5 115 - 0,0 90 1.022,1
11:24 14,6 8,8 11,7 68,0 0,7 114 - 0,0 90 1.022,1
11:23 14,6 8,8 11,7 68,0 0,5 113 - 0,0 90 1.022,1
11:22 14,6 8,8 11,7 68,0 0,7 113 - 0,0 90 1.022,1
11:21 14,6 8,8 11,7 68,0 1,0 114 - 0,0 90 1.022,0
11:20 14,6 8,8 11,7 68,0 1,2 115 - 0,0 90 1.022,0
11:19 14,5 8,7 11,6 68,0 1,2 116 - 0,0 91 1.022,0
11:18 14,6 8,8 11,7 68,1 1,2 118 - 0,0 91 1.022,0
11:17 14,5 8,9 11,8 69,3 1,1 120 - 0,0 91 1.022,0
11:16 14,5 9,1 11,8 70,0 1,1 121 - 0,0 92 1.022,0
11:15 14,5 9,1 11,8 70,0 1,2 122 - 0,0 93 1.022,0
11:14 14,4 9,0 11,7 70,0 1,3 122 - 0,0 93 1.022,0
11:13 14,4 9,0 11,7 70,0 1,5 121 - 0,0 95 1.022,1
11:12 14,4 9,0 11,7 70,0 1,6 120 - 0,0 95 1.022,1
11:10 14,4 9,0 11,7 70,0 1,5 118 - 0,0 95 1.022,1
11:09 14,3 8,9 11,7 70,0 1,4 117 - 0,0 95 1.022,1
11:08 14,3 8,9 11,7 70,0 1,5 115 - 0,0 95 1.022,1
11:07 14,3 8,9 11,7 70,0 1,8 114 - 0,0 95 1.022,1
11:06 14,3 8,9 11,7 70,0 2,4 113 - 0,0 95 1.022,1
11:05 14,3 8,9 11,7 70,0 3,0 111 - 0,0 95 1.022,0
11:04 14,3 8,9 11,7 70,0 3,5 110 - 0,0 95 1.022,0
11:03 14,2 8,8 11,6 70,0 4,0 109 - 0,0 95 1.022,0
11:02 14,2 8,8 11,6 70,0 4,4 109 - 0,0 95 1.022,0
11:01 14,2 8,8 11,6 70,0 4,7 109 - 0,0 97 1.021,9
11:00 14,2 9,0 11,7 70,9 5,0 109 - 0,0 95 1.022,0
 
10:59 14,2 9,0 11,7 71,0 5,1 109 - 0,0 95 1.022,0
10:58 14,1 8,9 11,6 71,0 5,0 109 - 0,0 95 1.022,0
10:57 14,1 9,0 11,6 71,5 4,9 109 - 0,0 95 1.021,9
10:56 14,0 9,0 11,6 72,0 4,7 108 - 0,0 95 1.022,0
10:55 14,1 9,1 11,7 72,0 4,5 108 - 0,0 94 1.021,9
10:54 14,0 9,0 11,6 72,0 4,0 108 - 0,0 93 1.022,0
10:53 13,9 9,0 11,6 72,3 3,3 107 - 0,0 93 1.022,0
10:52 13,9 9,1 11,6 73,0 2,8 107 - 0,0 92 1.022,0
10:51 13,9 9,1 11,6 73,0 2,6 107 - 0,0 91 1.021,9
10:50 13,9 9,1 11,6 73,0 2,6 108 - 0,0 91 1.021,9
10:49 13,8 9,0 11,5 73,0 2,5 109 - 0,0 90 1.021,9
10:48 13,8 9,2 11,6 73,9 2,7 110 - 0,0 90 1.021,9
10:47 13,8 9,2 11,7 74,0 3,1 111 - 0,0 89 1.021,9
10:46 13,8 9,3 11,7 74,4 3,3 112 - 0,0 88 1.021,8
10:45 13,7 9,3 11,7 75,0 2,9 113 - 0,0 88 1.021,9
10:44 13,7 9,3 11,7 75,0 2,3 115 - 0,0 86 1.021,9
10:43 13,7 9,3 11,7 75,0 1,8 115 - 0,0 86 1.021,8
10:42 13,7 9,3 11,7 75,0 1,3 115 - 0,0 86 1.021,8
10:41 13,7 9,3 11,7 75,0 1,0 115 - 0,0 85 1.021,8
10:40 13,7 9,3 11,7 75,0 1,0 114 - 0,0 84 1.021,8
10:39 13,6 9,3 11,6 75,0 0,9 113 - 0,0 84 1.021,8
10:38 13,6 9,3 11,6 75,0 0,9 113 - 0,0 83 1.021,8
10:37 13,5 9,3 11,6 75,8 0,9 113 - 0,0 83 1.021,8
10:36 13,6 9,4 11,7 76,0 0,8 114 - 0,0 83 1.021,8
10:35 13,5 9,4 11,6 76,0 0,8 115 - 0,0 82 1.021,8
10:34 13,4 9,3 11,5 76,0 0,9 116 - 0,0 81 1.021,7
10:33 13,4 9,3 11,5 76,0 1,2 118 - 0,0 81 1.021,7
10:32 13,4 9,4 11,6 76,7 1,7 119 - 0,0 79 1.021,7
10:31 13,3 9,4 11,5 77,0 2,2 119 - 0,0 79 1.021,7
10:30 13,3 9,4 11,5 77,2 2,4 120 - 0,0 78 1.021,7
10:29 13,3 9,5 11,6 78,0 2,4 120 - 0,0 77 1.021,7
10:28 13,2 9,4 11,5 78,0 2,3 120 - 0,0 77 1.021,6
10:27 13,2 9,4 11,5 78,0 2,1 119 - 0,0 76 1.021,6
10:26 13,2 9,4 11,5 78,0 1,9 120 - 0,0 76 1.021,6
10:25 13,2 9,4 11,5 78,0 1,8 120 - 0,0 76 1.021,5
10:24 13,1 9,4 11,4 78,0 1,7 120 - 0,0 76 1.021,5
10:23 13,1 9,4 11,4 78,0 1,5 121 - 0,0 76 1.021,5
10:22 13,1 9,4 11,4 78,0 1,3 121 - 0,0 74 1.021,5
10:21 13,1 9,4 11,4 78,0 1,3 121 - 0,0 74 1.021,5
10:20 13,1 9,4 11,4 78,0 1,4 121 - 0,0 74 1.021,5
10:19 13,1 9,5 11,5 78,9 1,4 121 - 0,0 73 1.021,5
10:18 13,0 9,4 11,4 79,0 1,2 121 - 0,0 72 1.021,5
10:17 13,0 9,4 11,4 79,0 1,0 120 - 0,0 72 1.021,6
10:16 13,0 9,4 11,4 79,0 1,0 119 - 0,0 72 1.021,6
10:15 12,9 9,3 11,3 79,0 1,2 117 - 0,0 70 1.021,6
10:14 12,9 9,3 11,3 79,0 1,3 114 - 0,0 70 1.021,5
10:13 12,8 9,3 11,3 79,1 1,5 112 - 0,0 70 1.021,5
10:12 12,8 9,4 11,4 80,0 1,8 110 - 0,0 67 1.021,5
10:11 12,8 9,4 11,4 80,0 1,9 108 - 0,0 68 1.021,5
10:10 12,8 9,4 11,4 80,0 1,7 106 - 0,0 69 1.021,5
10:09 12,7 9,3 11,3 80,0 1,4 105 - 0,0 67 1.021,5
10:08 12,7 9,3 11,3 80,0 1,2 104 - 0,0 67 1.021,5
10:07 12,7 9,3 11,3 80,0 1,1 103 - 0,0 66 1.021,4
10:06 12,7 9,3 11,3 80,0 1,0 103 - 0,0 65 1.021,5
10:05 12,7 9,3 11,3 80,0 1,2 103 - 0,0 64 1.021,4
10:04 12,6 9,2 11,2 80,0 1,6 104 - 0,0 63 1.021,4
10:03 12,6 9,4 11,2 80,7 1,9 105 - 0,0 62 1.021,4
10:02 12,6 9,4 11,3 81,0 1,9 105 - 0,0 61 1.021,3
10:01 12,5 9,3 11,2 81,0 1,8 106 - 0,0 60 1.021,3
10:00 12,5 9,3 11,2 81,0 1,6 107 - 0,0 60 1.021,4
 
09:59 12,4 9,2 11,1 81,0 1,3 108 - 0,0 60 1.021,4
09:58 12,4 9,2 11,1 81,0 1,0 108 - 0,0 58 1.021,4
09:57 12,4 9,2 11,1 81,0 0,7 108 - 0,0 58 1.021,3
09:56 12,4 9,4 11,2 81,8 0,6 108 - 0,0 58 1.021,3
09:55 12,4 9,4 11,2 82,0 0,7 108 - 0,0 57 1.021,2
09:54 12,3 9,3 11,1 82,0 1,0 108 - 0,0 56 1.021,2
09:53 12,3 9,3 11,1 82,0 1,3 107 - 0,0 56 1.021,2
09:52 12,3 9,3 11,1 82,0 1,5 107 - 0,0 54 1.021,2
09:51 12,2 9,2 11,0 82,0 1,7 106 - 0,0 54 1.021,2
09:50 12,2 9,4 11,1 82,9 1,7 105 - 0,0 54 1.021,2
09:49 12,2 9,4 11,1 83,0 1,7 104 - 0,0 54 1.021,2
09:48 12,1 9,3 11,0 83,0 1,6 103 - 0,0 53 1.021,2
09:47 12,1 9,3 11,0 83,0 1,5 103 - 0,0 53 1.021,2
09:46 12,1 9,3 11,0 83,0 1,2 102 - 0,0 53 1.021,2
09:45 12,0 9,2 10,9 83,0 1,1 101 - 0,0 51 1.021,2
09:44 12,0 9,4 11,0 83,9 1,0 101 - 0,0 51 1.021,2
09:43 12,0 9,4 11,0 84,0 0,9 100 - 0,0 51 1.021,2
09:42 11,9 9,3 10,9 84,0 0,6 100 - 0,0 50 1.021,1
09:41 11,9 9,3 10,9 84,0 0,3 100 - 0,0 49 1.021,1
09:40 11,9 9,4 11,0 84,8 0,3 101 - 0,0 49 1.021,1
09:39 11,9 9,5 11,0 85,0 0,4 102 - 0,0 49 1.021,1
09:38 11,8 9,4 10,9 85,0 0,5 103 - 0,0 47 1.021,1
09:37 11,8 9,4 10,9 85,0 0,6 105 - 0,0 47 1.021,0
09:36 11,8 9,4 10,9 85,0 0,8 106 - 0,0 47 1.021,1
09:35 11,7 9,3 10,8 85,0 1,2 107 - 0,0 47 1.021,1
09:34 11,7 9,4 10,9 85,6 1,6 108 - 0,0 46 1.021,1
09:33 11,7 9,4 10,9 86,0 1,8 109 - 0,0 46 1.021,1
09:32 11,7 9,4 10,9 86,0 1,9 110 - 0,0 46 1.021,0
09:31 11,6 9,3 10,8 86,0 1,9 110 - 0,0 46 1.021,0
09:30 11,6 9,3 10,8 86,0 1,8 110 - 0,0 45 1.021,1
09:29 11,6 9,4 10,8 86,5 1,7 110 - 0,0 44 1.021,1
09:28 11,6 9,5 10,9 87,0 1,4 110 - 0,0 44 1.021,0
09:27 11,5 9,4 10,8 87,0 1,3 109 - 0,0 44 1.021,0
09:26 11,5 9,4 10,8 87,0 1,2 109 - 0,0 44 1.021,0
09:25 11,5 9,4 10,8 87,0 1,2 109 - 0,0 44 1.021,1
09:24 11,5 9,4 10,8 87,0 1,2 108 - 0,0 44 1.021,0
09:23 11,4 9,3 10,7 87,0 1,2 108 - 0,0 42 1.021,1
09:22 11,4 9,4 10,8 87,7 1,3 108 - 0,0 42 1.021,0
09:21 11,4 9,5 10,8 88,0 1,3 107 - 0,0 42 1.021,0
09:20 11,4 9,5 10,8 88,0 1,3 107 - 0,0 42 1.021,0
09:19 11,4 9,5 10,8 88,0 1,3 106 - 0,0 42 1.021,0
09:18 11,3 9,4 10,7 88,0 1,3 106 - 0,0 42 1.021,0
09:17 11,3 9,4 10,7 88,0 1,4 105 - 0,0 42 1.021,0
09:16 11,3 9,4 10,7 88,0 1,5 104 - 0,0 42 1.021,0
09:15 11,3 9,4 10,7 88,0 1,6 104 - 0,0 40 1.021,0
09:14 11,3 9,6 10,8 89,0 1,5 103 - 0,0 40 1.021,0
09:13 11,3 9,6 10,8 89,0 1,5 103 - 0,0 40 1.021,0
09:12 11,3 9,6 10,8 89,0 1,5 103 - 0,0 40 1.021,0
09:11 11,2 9,5 10,7 89,0 1,4 102 - 0,0 40 1.021,0
09:10 11,2 9,5 10,7 89,0 1,2 102 - 0,0 40 1.020,9
09:09 11,2 9,5 10,7 89,0 1,0 101 - 0,0 40 1.021,0
09:08 11,2 9,5 10,7 89,0 1,0 101 - 0,0 40 1.021,0
09:07 11,2 9,5 10,7 89,0 0,9 101 - 0,0 40 1.020,9
09:06 11,2 9,5 10,7 89,0 0,7 100 - 0,0 40 1.021,0
09:05 11,2 9,5 10,7 89,0 0,7 100 - 0,0 40 1.020,9
09:04 11,2 9,5 10,7 89,0 0,7 100 - 0,0 40 1.020,9
09:03 11,2 9,5 10,7 89,0 0,7 99 - 0,0 40 1.020,9
09:02 11,2 9,6 10,8 90,0 0,7 99 - 0,0 39 1.020,9
09:01 11,2 9,6 10,8 89,7 0,7 99 - 0,0 39 1.020,9
09:00 11,2 9,5 10,7 89,0 0,7 99 - 0,0 39 1.020,9
 
08:59 11,1 9,4 10,6 89,0 0,6 99 - 0,0 39 1.020,9
08:58 11,1 9,5 10,7 89,8 0,5 99 - 0,0 39 1.020,8
08:57 11,1 9,5 10,7 90,0 0,5 99 - 0,0 39 1.020,8
08:56 11,1 9,5 10,7 90,0 0,4 99 - 0,0 39 1.020,8
08:55 11,1 9,5 10,7 90,0 0,4 99 - 0,0 39 1.020,8
08:54 11,1 9,5 10,7 90,0 0,5 99 - 0,0 39 1.020,8
08:53 11,1 9,5 10,7 90,0 0,7 99 - 0,0 42 1.020,8
08:52 11,1 9,5 10,7 90,0 0,9 99 - 0,0 67 1.020,8
08:51 11,0 9,4 10,6 90,0 1,0 99 - 0,0 107 1.020,8
08:50 11,0 9,4 10,6 90,0 1,2 98 - 0,0 130 1.020,9
08:49 11,0 9,4 10,6 90,0 1,2 98 - 0,0 134 1.020,8
08:48 10,9 9,3 10,5 90,0 1,2 97 - 0,0 134 1.020,8
08:47 10,9 9,3 10,5 90,0 1,2 96 - 0,0 132 1.020,8
08:46 10,9 9,3 10,5 90,0 1,2 95 - 0,0 128 1.020,8
08:45 10,9 9,3 10,5 90,0 1,1 95 - 0,0 125 1.020,8
08:44 10,8 9,2 10,4 90,0 1,1 94 - 0,0 121 1.020,8
08:43 10,8 9,3 10,4 90,4 1,0 93 - 0,0 119 1.020,8
08:42 10,8 9,4 10,5 91,0 0,9 93 - 0,0 116 1.020,8
08:41 10,8 9,4 10,5 91,0 0,9 92 - 0,0 113 1.020,7
08:40 10,7 9,3 10,4 91,0 0,8 92 - 0,0 110 1.020,7
08:39 10,7 9,3 10,4 91,0 0,8 92 - 0,0 108 1.020,7
08:38 10,7 9,3 10,4 91,0 0,9 91 - 0,0 104 1.020,7
08:37 10,6 9,2 10,3 91,0 1,1 91 - 0,0 99 1.020,7
08:36 10,6 9,2 10,3 91,0 1,2 91 - 0,0 91 1.020,7
08:35 10,6 9,2 10,3 91,0 1,2 91 - 0,0 84 1.020,7
08:34 10,6 9,2 10,3 91,0 1,2 91 - 0,0 80 1.020,6
08:33 10,5 9,1 10,2 91,0 1,2 91 - 0,0 78 1.020,6
08:32 10,5 9,1 10,2 91,0 1,1 91 - 0,0 77 1.020,6
08:31 10,5 9,1 10,2 91,0 0,9 91 - 0,0 76 1.020,6
08:30 10,4 9,0 10,1 91,0 0,8 92 - 0,0 74 1.020,6
08:29 10,4 9,0 10,1 91,0 0,8 94 - 0,0 74 1.020,6
08:28 10,4 9,0 10,1 91,0 0,9 95 - 0,0 73 1.020,6
08:27 10,4 9,0 10,1 91,0 0,8 97 - 0,0 73 1.020,6
08:26 10,3 8,9 9,9 91,0 0,8 98 - 0,0 75 1.020,6
08:25 10,3 8,9 9,9 91,0 0,8 100 - 0,0 75 1.020,6
08:24 10,3 8,9 9,9 91,0 0,9 101 - 0,0 74 1.020,6
08:23 10,3 8,9 9,9 91,0 1,0 102 - 0,0 72 1.020,6
08:22 10,3 8,9 9,9 91,0 1,1 102 - 0,0 73 1.020,6
08:21 10,3 8,9 9,9 91,0 1,2 103 - 0,0 72 1.020,6
08:20 10,3 8,9 9,9 91,0 1,4 103 - 0,0 71 1.020,6
08:19 10,2 8,8 9,8 91,0 1,5 103 - 0,0 69 1.020,5
08:18 10,2 8,8 9,8 91,0 1,5 103 - 0,0 67 1.020,6
08:17 10,2 8,8 9,8 91,0 1,5 103 - 0,0 65 1.020,5
08:16 10,2 8,8 9,8 91,0 1,4 104 - 0,0 63 1.020,5
08:14 10,2 8,8 9,8 91,0 1,3 104 - 0,0 59 1.020,5
08:13 10,1 8,7 9,7 91,0 1,3 104 - 0,0 58 1.020,5
08:12 10,1 8,7 9,7 91,0 1,3 104 - 0,0 58 1.020,5
08:11 10,1 8,7 9,7 91,0 1,4 103 - 0,0 58 1.020,5
08:10 10,1 8,7 9,7 91,0 1,6 103 - 0,0 57 1.020,5
08:09 10,1 8,7 9,7 91,0 1,7 103 - 0,0 53 1.020,4
08:08 10,1 8,7 9,7 91,0 1,9 102 - 0,0 48 1.020,5
08:07 10,0 8,6 9,6 91,0 2,0 102 - 0,0 47 1.020,4
08:06 10,0 8,6 9,6 91,0 2,0 101 - 0,0 49 1.020,5
08:05 10,0 8,6 9,6 91,0 2,0 101 - 0,0 47 1.020,5
08:04 10,0 8,6 9,6 91,0 2,0 101 - 0,0 45 1.020,5
08:03 10,0 8,6 9,6 91,0 1,9 101 - 0,0 43 1.020,5
08:02 9,9 8,5 9,5 91,0 1,9 100 - 0,0 42 1.020,5
08:01 9,9 8,5 9,5 91,0 1,9 100 - 0,0 40 1.020,4
08:00 9,9 8,5 9,5 91,0 1,8 100 - 0,0 40 1.020,5
 
07:59 9,9 8,5 9,5 91,0 1,8 100 - 0,0 38 1.020,5
07:58 9,9 8,5 9,5 91,0 1,7 99 - 0,0 36 1.020,5
07:57 9,9 8,5 9,5 91,0 1,8 99 - 0,0 34 1.020,5
07:56 9,9 8,5 9,5 91,0 1,8 99 - 0,0 33 1.020,5
07:55 9,9 8,5 9,5 91,0 1,8 98 - 0,0 32 1.020,5
07:54 9,8 8,4 9,4 91,0 1,8 98 - 0,0 31 1.020,5
07:53 9,8 8,4 9,4 91,0 1,8 98 - 0,0 26 1.020,4
07:52 9,8 8,4 9,4 91,0 1,8 97 - 0,0 26 1.020,4
07:51 9,8 8,4 9,4 91,0 1,8 97 - 0,0 26 1.020,4
07:50 9,8 8,4 9,4 91,0 1,9 97 - 0,0 25 1.020,4
07:49 9,8 8,4 9,4 91,0 1,9 97 - 0,0 25 1.020,4
07:48 9,8 8,4 9,4 91,0 1,9 97 - 0,0 23 1.020,4
07:47 9,8 8,4 9,4 91,0 1,9 97 - 0,0 21 1.020,4
07:46 9,8 8,4 9,4 91,0 1,8 97 - 0,0 20 1.020,4
07:45 9,8 8,4 9,4 91,0 1,7 97 - 0,0 19 1.020,3
07:44 9,8 8,4 9,4 91,0 1,6 97 - 0,0 18 1.020,4
07:43 9,8 8,4 9,4 91,0 1,5 97 - 0,0 18 1.020,4
07:42 9,7 8,3 9,3 91,0 1,5 98 - 0,0 16 1.020,3
07:41 9,7 8,3 9,3 91,0 1,6 98 - 0,0 16 1.020,3
07:40 9,7 8,3 9,3 91,0 1,6 99 - 0,0 16 1.020,2
07:39 9,7 8,3 9,3 91,0 1,7 99 - 0,0 15 1.020,3
07:38 9,7 8,3 9,3 91,0 1,7 100 - 0,0 14 1.020,3
07:37 9,7 8,3 9,3 91,0 1,7 101 - 0,0 14 1.020,3
07:36 9,7 8,3 9,3 91,0 1,7 101 - 0,0 12 1.020,3
07:35 9,7 8,3 9,3 91,0 1,7 102 - 0,0 12 1.020,3
07:33 9,7 8,3 9,3 91,0 1,7 103 - 0,0 11 1.020,2
07:32 9,7 8,3 9,3 91,0 1,7 103 - 0,0 11 1.020,2
07:31 9,7 8,3 9,3 91,0 1,8 104 - 0,0 9 1.020,2
07:30 9,7 8,3 9,3 91,0 1,8 104 - 0,0 9 1.020,2
07:29 9,7 8,3 9,3 91,0 1,9 105 - 0,0 9 1.020,2
07:28 9,7 8,1 9,2 90,0 2,0 105 - 0,0 9 1.020,2
07:27 9,7 8,1 9,2 90,0 2,0 105 - 0,0 8 1.020,2
07:26 9,7 8,1 9,2 90,0 2,0 105 - 0,0 7 1.020,2
07:25 9,7 8,1 9,2 90,0 2,0 105 - 0,0 7 1.020,2
07:24 9,7 8,1 9,2 90,0 1,9 105 - 0,0 7 1.020,2
07:23 9,8 8,2 9,3 90,0 1,9 104 - 0,0 6 1.020,2
07:22 9,7 8,1 9,2 90,0 1,8 104 - 0,0 5 1.020,2
07:21 9,8 8,2 9,3 90,0 1,8 104 - 0,0 5 1.020,2
07:20 9,8 8,2 9,3 90,0 1,8 104 - 0,0 5 1.020,2
07:19 9,8 8,4 9,4 90,7 1,9 104 - 0,0 4 1.020,2
07:18 9,8 8,3 9,4 90,2 1,9 104 - 0,0 0 1.020,2
07:17 9,8 8,2 9,3 90,0 2,0 103 - 0,0 0 1.020,2
07:16 9,8 8,2 9,3 90,0 2,0 103 - 0,0 0 1.020,2
07:15 9,8 8,2 9,3 90,0 2,0 103 - 0,0 0 1.020,2
07:14 9,8 8,2 9,3 90,0 2,0 103 - 0,0 0 1.020,2
07:13 9,8 8,2 9,3 90,0 2,0 102 - 0,0 0 1.020,2
07:12 9,9 8,3 9,4 90,0 1,9 102 - 0,0 0 1.020,1
07:11 9,8 8,2 9,3 90,0 1,9 102 - 0,0 0 1.020,1
07:10 9,9 8,3 9,4 90,0 1,9 101 - 0,0 0 1.020,1
07:09 9,9 8,3 9,4 90,0 1,8 101 - 0,0 0 1.020,2
07:08 9,9 8,3 9,4 90,0 1,7 100 - 0,0 0 1.020,2
07:07 9,9 8,3 9,4 90,0 1,6 100 - 0,0 0 1.020,2
07:06 9,9 8,3 9,4 90,0 1,6 99 - 0,0 0 1.020,2
07:05 9,9 8,3 9,4 90,0 1,5 99 - 0,0 0 1.020,1
07:04 10,0 8,4 9,5 90,0 1,4 98 - 0,0 0 1.020,2
07:03 10,0 8,4 9,5 90,0 1,4 97 - 0,0 0 1.020,2
07:02 10,0 8,4 9,5 90,0 1,4 96 - 0,0 0 1.020,2
07:01 10,0 8,4 9,5 90,0 1,4 96 - 0,0 0 1.020,2
07:00 10,0 8,4 9,5 90,0 1,3 95 - 0,0 0 1.020,1
 
06:59 9,9 8,3 9,4 90,0 1,3 95 - 0,0 0 1.020,2
06:58 9,9 8,3 9,4 90,0 1,3 94 - 0,0 0 1.020,1
06:57 10,0 8,4 9,5 90,0 1,2 94 - 0,0 0 1.020,1
06:56 10,0 8,4 9,5 90,0 1,2 94 - 0,0 0 1.020,1
06:55 10,0 8,4 9,5 90,0 1,2 95 - 0,0 0 1.020,1
06:54 10,0 8,4 9,5 90,0 1,3 95 - 0,0 0 1.020,1
06:53 10,0 8,4 9,5 90,0 1,3 96 - 0,0 0 1.020,0
06:52 9,9 8,3 9,4 90,0 1,4 97 - 0,0 0 1.020,0
06:51 9,9 8,3 9,4 90,0 1,4 98 - 0,0 0 1.020,0
06:50 9,9 8,3 9,4 90,0 1,4 99 - 0,0 0 1.019,9
06:49 9,9 8,3 9,4 90,0 1,4 100 - 0,0 0 1.020,0
06:48 9,9 8,3 9,4 90,0 1,4 101 - 0,0 0 1.019,9
06:47 9,9 8,3 9,4 90,0 1,3 102 - 0,0 0 1.019,9
06:46 9,9 8,3 9,4 90,0 1,3 103 - 0,0 0 1.019,9
06:45 9,9 8,3 9,4 90,0 1,3 104 - 0,0 0 1.019,9
06:44 9,9 8,3 9,4 90,0 1,3 105 - 0,0 0 1.019,9
06:43 10,0 8,4 9,5 90,0 1,3 106 - 0,0 0 1.019,8
06:42 10,0 8,4 9,5 90,0 1,3 106 - 0,0 0 1.019,8
06:41 9,9 8,3 9,4 90,0 1,3 107 - 0,0 0 1.019,8
06:40 10,0 8,4 9,5 90,0 1,3 107 - 0,0 0 1.019,8
06:39 10,0 8,4 9,5 90,0 1,3 107 - 0,0 0 1.019,8
06:38 10,0 8,4 9,5 90,0 1,3 107 - 0,0 0 1.019,8
06:37 10,1 8,5 9,6 90,0 1,3 106 - 0,0 0 1.019,8
06:36 10,1 8,5 9,6 90,0 1,3 106 - 0,0 0 1.019,8
06:35 10,1 8,5 9,6 90,0 1,3 106 - 0,0 0 1.019,8
06:34 10,1 8,5 9,6 90,0 1,3 105 - 0,0 0 1.019,8
06:33 10,1 8,5 9,6 90,0 1,4 104 - 0,0 0 1.019,8
06:32 10,1 8,5 9,6 90,0 1,4 104 - 0,0 0 1.019,8
06:31 10,1 8,5 9,6 90,0 1,4 103 - 0,0 0 1.019,7
06:30 10,1 8,5 9,6 90,0 1,4 103 - 0,0 0 1.019,8
06:29 10,1 8,5 9,6 90,0 1,4 102 - 0,0 0 1.019,8
06:28 10,1 8,5 9,6 90,0 1,4 101 - 0,0 0 1.019,7
06:27 10,1 8,5 9,6 90,0 1,4 101 - 0,0 0 1.019,7
06:26 10,1 8,5 9,6 90,0 1,4 100 - 0,0 0 1.019,6
06:25 10,1 8,5 9,6 90,0 1,5 100 - 0,0 0 1.019,6
06:24 10,1 8,5 9,6 90,0 1,5 100 - 0,0 0 1.019,6
06:23 10,1 8,5 9,6 90,0 1,6 100 - 0,0 0 1.019,6
06:22 10,1 8,5 9,6 90,0 1,6 99 - 0,0 0 1.019,7
06:21 10,1 8,5 9,6 90,0 1,6 99 - 0,0 0 1.019,6
06:20 10,1 8,5 9,6 90,0 1,6 99 - 0,0 0 1.019,6
06:19 10,1 8,5 9,6 90,0 1,6 99 - 0,0 0 1.019,6
06:18 10,1 8,5 9,6 90,0 1,6 99 - 0,0 0 1.019,6
06:17 10,1 8,5 9,6 90,0 1,6 100 - 0,0 0 1.019,6
06:16 10,1 8,5 9,6 90,0 1,6 100 - 0,0 0 1.019,6
06:15 10,1 8,5 9,6 90,0 1,6 100 - 0,0 0 1.019,6
06:14 10,1 8,5 9,6 90,0 1,6 100 - 0,0 0 1.019,6
06:13 10,1 8,5 9,6 90,0 1,6 100 - 0,0 0 1.019,6
06:12 10,1 8,5 9,6 90,0 1,7 101 - 0,0 0 1.019,6
06:11 10,1 8,5 9,6 90,0 1,7 101 - 0,0 0 1.019,6
06:10 10,1 8,5 9,6 90,0 1,7 102 - 0,0 0 1.019,6
06:09 10,1 8,5 9,6 90,0 1,7 103 - 0,0 0 1.019,6
06:08 10,1 8,5 9,6 90,0 1,6 103 - 0,0 0 1.019,6
06:07 10,1 8,5 9,6 90,0 1,5 104 - 0,0 0 1.019,6
06:06 10,1 8,5 9,6 89,8 1,5 104 - 0,0 0 1.019,6
06:05 10,1 8,4 9,6 89,0 1,4 105 - 0,0 0 1.019,6
06:04 10,1 8,4 9,6 89,0 1,3 105 - 0,0 0 1.019,6
06:03 10,1 8,4 9,6 89,0 1,3 105 - 0,0 0 1.019,6
06:02 10,1 8,4 9,6 89,0 1,3 106 - 0,0 0 1.019,6
06:01 10,1 8,4 9,6 89,0 1,3 106 - 0,0 0 1.019,6
06:00 10,1 8,4 9,6 89,0 1,3 106 - 0,0 0 1.019,6
 
05:59 10,1 8,4 9,6 89,0 1,3 107 - 0,0 0 1.019,6
05:58 10,2 8,5 9,7 89,0 1,4 107 - 0,0 0 1.019,6
05:57 10,2 8,5 9,7 89,0 1,4 106 - 0,0 0 1.019,6
05:56 10,2 8,5 9,7 89,0 1,5 106 - 0,0 0 1.019,6
05:55 10,2 8,5 9,7 89,0 1,5 105 - 0,0 0 1.019,6
05:54 10,2 8,5 9,7 89,0 1,6 105 - 0,0 0 1.019,6
05:53 10,2 8,5 9,7 89,0 1,7 104 - 0,0 0 1.019,6
05:52 10,2 8,5 9,7 89,0 1,8 103 - 0,0 0 1.019,6
05:51 10,2 8,5 9,7 89,0 1,8 103 - 0,0 0 1.019,6
05:50 10,2 8,5 9,7 89,0 1,9 102 - 0,0 0 1.019,6
05:49 10,2 8,5 9,7 89,0 2,0 102 - 0,0 0 1.019,6
05:48 10,2 8,5 9,7 89,0 2,0 102 - 0,0 0 1.019,6
05:47 10,2 8,5 9,7 89,0 2,1 102 - 0,0 0 1.019,6
05:46 10,2 8,5 9,7 89,0 2,0 102 - 0,0 0 1.019,6
05:45 10,2 8,5 9,7 89,0 1,9 102 - 0,0 0 1.019,6
05:44 10,1 8,4 9,6 89,0 1,7 102 - 0,0 0 1.019,6
05:43 10,1 8,4 9,6 89,0 1,6 102 - 0,0 0 1.019,6
05:42 10,2 8,5 9,7 89,0 1,4 102 - 0,0 0 1.019,6
05:41 10,2 8,5 9,7 89,0 1,4 102 - 0,0 0 1.019,6
05:40 10,1 8,4 9,6 89,0 1,4 103 - 0,0 0 1.019,6
05:39 10,2 8,5 9,7 89,0 1,4 103 - 0,0 0 1.019,5
05:38 10,2 8,5 9,7 89,0 1,4 104 - 0,0 0 1.019,5
05:37 10,2 8,5 9,7 89,0 1,5 105 - 0,0 0 1.019,5
05:36 10,2 8,5 9,7 89,0 1,5 105 - 0,0 0 1.019,5
05:35 10,2 8,5 9,7 89,0 1,5 106 - 0,0 0 1.019,5
05:34 10,2 8,5 9,7 89,0 1,5 107 - 0,0 0 1.019,5
05:33 10,2 8,5 9,7 89,0 1,5 107 - 0,0 0 1.019,5
05:32 10,2 8,5 9,7 89,0 1,6 108 - 0,0 0 1.019,5
05:31 10,2 8,5 9,7 89,0 1,6 108 - 0,0 0 1.019,5
05:30 10,2 8,5 9,7 89,0 1,7 107 - 0,0 0 1.019,5
05:29 10,2 8,5 9,7 89,0 1,7 107 - 0,0 0 1.019,5
05:28 10,2 8,5 9,7 89,0 1,6 107 - 0,0 0 1.019,5
05:27 10,3 8,6 9,8 89,0 1,6 107 - 0,0 0 1.019,5
05:26 10,2 8,5 9,7 89,0 1,5 107 - 0,0 0 1.019,5
05:25 10,3 8,6 9,8 89,0 1,5 106 - 0,0 0 1.019,5
05:24 10,3 8,6 9,8 89,0 1,5 106 - 0,0 0 1.019,5
05:23 10,3 8,6 9,8 89,0 1,5 106 - 0,0 0 1.019,5
05:22 10,3 8,6 9,8 89,0 1,6 106 - 0,0 0 1.019,5
05:21 10,3 8,6 9,8 89,0 1,6 106 - 0,0 0 1.019,4
05:20 10,3 8,6 9,8 89,0 1,7 106 - 0,0 0 1.019,4
05:19 10,3 8,6 9,8 89,0 1,8 106 - 0,0 0 1.019,4
05:18 10,3 8,6 9,8 89,0 1,9 106 - 0,0 0 1.019,3
05:17 10,3 8,6 9,8 89,0 2,0 106 - 0,0 0 1.019,3
05:16 10,4 8,7 9,9 89,0 2,1 106 - 0,0 0 1.019,3
05:15 10,3 8,6 9,8 89,0 2,1 106 - 0,0 0 1.019,3
05:14 10,4 8,7 9,9 89,0 2,1 106 - 0,0 0 1.019,3
05:13 10,4 8,7 9,9 89,0 2,0 106 - 0,0 0 1.019,3
05:12 10,4 8,6 9,8 88,6 1,9 107 - 0,0 0 1.019,3
05:11 10,4 8,5 9,8 88,0 1,9 107 - 0,0 0 1.019,3
05:10 10,4 8,5 9,8 88,0 1,9 108 - 0,0 0 1.019,3
05:09 10,4 8,5 9,8 88,0 1,9 108 - 0,0 0 1.019,3
05:08 10,4 8,5 9,8 88,0 1,9 109 - 0,0 0 1.019,3
05:07 10,5 8,6 9,9 88,0 2,0 110 - 0,0 0 1.019,3
05:06 10,4 8,5 9,8 88,0 2,1 110 - 0,0 0 1.019,3
05:05 10,5 8,6 9,9 88,0 2,2 111 - 0,0 0 1.019,3
05:04 10,5 8,6 9,9 88,0 2,1 112 - 0,0 0 1.019,3
05:03 10,5 8,6 9,9 88,0 2,1 112 - 0,0 0 1.019,3
05:02 10,5 8,6 9,9 88,2 2,0 113 - 0,0 0 1.019,2
05:01 10,5 8,8 10,0 89,0 1,9 113 - 0,0 0 1.019,2
05:00 10,6 8,9 10,1 89,0 1,9 114 - 0,0 0 1.019,2
 
04:59 10,6 8,9 10,1 89,0 1,9 114 - 0,0 0 1.019,2
04:58 10,6 8,9 10,1 89,0 1,9 114 - 0,0 0 1.019,2
04:57 10,6 8,9 10,1 89,0 1,8 115 - 0,0 0 1.019,1
04:56 10,6 8,9 10,1 89,0 1,8 115 - 0,0 0 1.019,2
04:55 10,6 8,9 10,1 89,0 1,7 116 - 0,0 0 1.019,2
04:54 10,6 8,9 10,1 89,0 1,6 117 - 0,0 0 1.019,2
04:53 10,6 8,9 10,1 89,0 1,5 117 - 0,0 0 1.019,2
04:52 10,6 8,9 10,1 89,0 1,4 118 - 0,0 0 1.019,1
04:51 10,6 8,7 10,0 88,1 1,2 118 - 0,0 0 1.019,1
04:50 10,6 8,7 10,0 88,0 1,1 118 - 0,0 0 1.019,1
04:49 10,6 8,7 10,0 88,0 1,0 117 - 0,0 0 1.019,1
04:48 10,6 8,7 10,0 88,0 1,0 117 - 0,0 0 1.019,1
04:47 10,6 8,7 10,0 88,0 0,9 115 - 0,0 0 1.019,1
04:46 10,6 8,7 10,0 88,0 0,9 114 - 0,0 0 1.019,1
04:45 10,6 8,7 10,0 88,0 0,9 113 - 0,0 0 1.019,1
04:44 10,6 8,7 10,0 88,0 0,9 113 - 0,0 0 1.019,2
04:43 10,6 8,7 10,0 88,0 0,9 112 - 0,0 0 1.019,2
04:42 10,6 8,7 10,0 88,0 1,0 112 - 0,0 0 1.019,1
04:41 10,7 8,8 10,1 88,0 1,0 112 - 0,0 0 1.019,1
04:40 10,6 8,7 10,0 88,0 1,1 112 - 0,0 0 1.019,2
04:39 10,7 8,8 10,1 88,0 1,3 112 - 0,0 0 1.019,2
04:38 10,7 8,8 10,1 88,0 1,4 113 - 0,0 0 1.019,1
04:37 10,7 8,8 10,1 88,0 1,5 113 - 0,0 0 1.019,1
04:36 10,7 8,8 10,1 88,0 1,5 113 - 0,0 0 1.019,1
04:35 10,7 8,8 10,1 88,0 1,6 112 - 0,0 0 1.019,1
04:34 10,7 8,8 10,1 88,0 1,6 112 - 0,0 0 1.019,1
04:33 10,7 8,8 10,1 88,0 1,6 111 - 0,0 0 1.019,1
04:32 10,7 8,8 10,1 88,0 1,6 110 - 0,0 0 1.019,1
04:31 10,7 8,8 10,1 88,0 1,6 110 - 0,0 0 1.019,1
04:30 10,7 8,8 10,1 88,0 1,6 109 - 0,0 0 1.019,1
04:29 10,7 8,8 10,1 88,0 1,7 108 - 0,0 0 1.019,1
04:28 10,7 8,8 10,1 88,0 1,8 108 - 0,0 0 1.019,1
04:27 10,7 8,8 10,1 88,0 1,8 108 - 0,0 0 1.019,0
04:26 10,7 8,8 10,1 88,0 1,8 107 - 0,0 0 1.019,0
04:25 10,7 8,8 10,1 88,0 1,8 107 - 0,0 0 1.019,0
04:24 10,7 8,8 10,1 88,0 1,9 107 - 0,0 0 1.019,0
04:23 10,7 8,8 10,1 88,0 2,0 106 - 0,0 0 1.019,0
04:22 10,8 8,9 10,2 88,0 2,0 106 - 0,0 0 1.018,9
04:21 10,8 8,9 10,2 88,0 2,1 105 - 0,0 0 1.018,9
04:20 10,7 8,8 10,1 88,0 2,2 105 - 0,0 0 1.018,9
04:19 10,8 8,9 10,2 88,0 2,3 105 - 0,0 0 1.018,9
04:18 10,8 8,9 10,2 88,0 2,3 105 - 0,0 0 1.018,9
04:17 10,8 8,9 10,2 88,0 2,2 105 - 0,0 0 1.018,9
04:16 10,8 8,9 10,2 88,0 2,2 105 - 0,0 0 1.018,9
04:15 10,8 8,9 10,2 88,0 2,1 105 - 0,0 0 1.018,9
04:14 10,8 8,9 10,2 88,0 2,1 106 - 0,0 0 1.018,9
04:13 10,8 8,9 10,2 88,0 2,1 106 - 0,0 0 1.018,9
04:12 10,8 8,9 10,2 88,0 2,0 107 - 0,0 0 1.018,9
04:11 10,8 8,9 10,2 88,0 1,8 107 - 0,0 0 1.018,9
04:10 10,8 8,9 10,2 88,0 1,8 108 - 0,0 0 1.018,9
04:09 10,8 8,9 10,2 88,0 1,7 109 - 0,0 0 1.018,9
04:08 10,8 8,9 10,2 88,0 1,6 110 - 0,0 0 1.018,9
04:07 10,8 8,9 10,2 88,0 1,6 111 - 0,0 0 1.018,9
04:06 10,8 8,9 10,2 88,0 1,7 111 - 0,0 0 1.018,9
04:05 10,8 8,9 10,2 88,0 1,9 112 - 0,0 0 1.019,0
04:04 10,8 8,9 10,2 88,0 2,0 112 - 0,0 0 1.019,0
04:03 10,8 8,9 10,2 88,0 2,0 112 - 0,0 0 1.018,9
04:02 10,8 8,9 10,2 88,0 2,1 112 - 0,0 0 1.018,9
04:01 10,8 8,9 10,2 88,0 2,1 112 - 0,0 0 1.019,0
04:00 10,9 9,0 10,3 88,0 2,0 112 - 0,0 0 1.019,0
 
03:59 10,9 9,0 10,3 88,0 1,9 112 - 0,0 0 1.019,0
03:58 10,8 8,9 10,2 88,0 1,9 112 - 0,0 0 1.019,0
03:56 10,9 9,0 10,3 88,0 1,9 112 - 0,0 0 1.019,0
03:55 10,9 9,0 10,3 88,0 1,9 113 - 0,0 0 1.019,0
03:54 10,9 9,0 10,3 88,0 1,9 113 - 0,0 0 1.019,0
03:53 10,9 9,0 10,3 88,0 1,9 114 - 0,0 0 1.019,0
03:52 10,9 9,0 10,3 88,0 1,9 114 - 0,0 0 1.019,0
03:51 11,0 9,1 10,4 88,0 1,8 115 - 0,0 0 1.019,0
03:50 10,9 9,0 10,3 88,0 1,8 116 - 0,0 0 1.019,0
03:49 11,0 9,1 10,4 88,0 1,7 117 - 0,0 0 1.019,0
03:48 11,0 9,1 10,4 88,0 1,6 118 - 0,0 0 1.019,0
03:47 11,0 9,1 10,4 88,0 1,5 119 - 0,0 0 1.019,0
03:46 11,0 9,1 10,4 88,0 1,4 121 - 0,0 0 1.019,0
03:45 11,1 9,2 10,5 88,0 1,3 123 - 0,0 0 1.019,0
03:44 11,1 9,2 10,5 88,0 1,2 125 - 0,0 0 1.019,0
03:43 11,1 9,2 10,5 88,0 1,1 126 - 0,0 0 1.019,0
03:42 11,1 9,2 10,5 88,0 1,0 128 - 0,0 0 1.019,0
03:41 11,1 9,2 10,5 88,0 0,9 129 - 0,0 0 1.019,0
03:40 11,1 9,2 10,5 88,0 0,9 131 - 0,0 0 1.019,0
03:39 11,1 9,2 10,5 88,0 0,9 132 - 0,0 0 1.019,0
03:38 11,1 9,2 10,5 88,0 0,8 134 - 0,0 0 1.019,0
03:37 11,2 9,3 10,6 88,0 0,8 135 - 0,0 0 1.019,0
03:36 11,2 9,3 10,6 88,0 0,7 137 - 0,0 0 1.019,0
03:35 11,2 9,3 10,6 88,0 0,7 138 - 0,0 0 1.019,0
03:34 11,2 9,3 10,6 88,0 0,7 138 - 0,0 0 1.019,0
03:33 11,2 9,3 10,6 88,0 0,7 138 - 0,0 0 1.019,0
03:32 11,2 9,3 10,6 88,0 0,7 138 - 0,0 0 1.019,0
03:31 11,2 9,3 10,6 88,0 0,7 137 - 0,0 0 1.019,0
03:30 11,2 9,3 10,6 88,0 0,7 136 - 0,0 0 1.019,0
03:29 11,2 9,3 10,6 88,0 0,8 136 - 0,0 0 1.019,0
03:28 11,2 9,3 10,6 88,0 0,9 135 - 0,0 0 1.018,9
03:27 11,2 9,3 10,6 88,0 0,8 135 - 0,0 0 1.018,9
03:26 11,2 9,3 10,6 88,0 0,7 135 - 0,0 0 1.019,0
03:25 11,2 9,3 10,6 88,0 0,7 135 - 0,0 0 1.019,0
03:24 11,2 9,3 10,6 88,0 0,6 136 - 0,0 0 1.019,0
03:23 11,2 9,3 10,6 88,0 0,6 137 - 0,0 0 1.019,0
03:22 11,3 9,4 10,7 88,0 0,4 138 - 0,0 0 1.018,9
03:21 11,2 9,3 10,6 88,0 0,4 139 - 0,0 0 1.019,0
03:20 11,3 9,4 10,7 88,0 0,4 139 - 0,0 0 1.019,0
03:19 11,3 9,4 10,7 88,0 0,4 140 - 0,0 0 1.018,9
03:18 11,3 9,4 10,7 88,0 0,5 140 - 0,0 0 1.019,0
03:17 11,3 9,4 10,7 88,0 0,5 139 - 0,0 0 1.018,9
03:16 11,3 9,4 10,7 88,0 0,6 139 - 0,0 0 1.018,9
03:15 11,3 9,3 10,7 87,7 0,7 139 - 0,0 0 1.018,9
03:14 11,3 9,2 10,6 87,0 0,8 138 - 0,0 0 1.018,9
03:13 11,3 9,2 10,6 87,0 0,7 137 - 0,0 0 1.018,9
03:12 11,3 9,2 10,6 87,0 0,7 135 - 0,0 0 1.018,9
03:11 11,3 9,2 10,6 87,0 0,7 133 - 0,0 0 1.018,9
03:10 11,3 9,2 10,6 87,0 0,7 131 - 0,0 0 1.018,9
03:09 11,3 9,2 10,6 87,0 0,8 129 - 0,0 0 1.018,9
03:08 11,3 9,2 10,6 87,0 0,8 126 - 0,0 0 1.018,9
03:07 11,3 9,2 10,6 87,0 0,8 123 - 0,0 0 1.018,9
03:06 11,4 9,3 10,7 87,0 0,8 121 - 0,0 0 1.018,8
03:05 11,4 9,3 10,7 87,0 0,8 119 - 0,0 0 1.018,8
03:04 11,4 9,3 10,7 87,0 0,9 117 - 0,0 0 1.018,8
03:03 11,4 9,3 10,7 87,0 0,8 115 - 0,0 0 1.018,8
03:02 11,4 9,3 10,7 87,0 0,8 114 - 0,0 0 1.018,9
03:01 11,4 9,3 10,7 87,0 0,7 113 - 0,0 0 1.018,8
03:00 11,4 9,3 10,7 87,0 0,7 112 - 0,0 0 1.018,8
 
02:59 11,4 9,3 10,7 87,0 0,6 111 - 0,0 0 1.018,9
02:58 11,4 9,3 10,7 87,0 0,7 110 - 0,0 0 1.018,9
02:57 11,4 9,3 10,7 87,0 0,8 111 - 0,0 0 1.018,8
02:56 11,4 9,3 10,7 87,0 0,9 112 - 0,0 0 1.018,9
02:55 11,4 9,3 10,7 87,0 0,9 114 - 0,0 0 1.018,9
02:54 11,4 9,3 10,7 87,0 0,9 116 - 0,0 0 1.018,9
02:53 11,4 9,3 10,7 87,0 0,9 119 - 0,0 0 1.018,9
02:52 11,4 9,3 10,7 87,0 0,7 122 - 0,0 0 1.018,9
02:51 11,5 9,4 10,8 87,0 0,7 126 - 0,0 0 1.018,9
02:50 11,5 9,4 10,8 87,0 0,7 129 - 0,0 0 1.018,9
02:49 11,4 9,3 10,7 87,0 0,7 132 - 0,0 0 1.018,9
02:48 11,5 9,4 10,8 87,0 0,7 135 - 0,0 0 1.018,9
02:47 11,5 9,4 10,8 87,0 0,7 137 - 0,0 0 1.018,9
02:46 11,5 9,4 10,8 87,0 0,9 139 - 0,0 0 1.018,9
02:45 11,5 9,4 10,8 87,0 1,0 141 - 0,0 0 1.018,9
02:44 11,5 9,4 10,8 87,0 0,9 143 - 0,0 0 1.018,9
02:43 11,6 9,5 10,9 87,0 0,8 145 - 0,0 0 1.018,9
02:42 11,6 9,5 10,9 87,0 0,5 146 - 0,0 0 1.018,9
02:41 11,6 9,5 10,9 87,0 0,3 147 - 0,0 0 1.018,9
02:40 11,6 9,5 10,9 87,0 0,3 148 - 0,0 0 1.018,9
02:39 11,6 9,5 10,9 87,0 0,3 148 - 0,0 0 1.018,8
02:38 11,6 9,5 10,9 87,0 0,4 148 - 0,0 0 1.018,8
02:37 11,6 9,5 10,9 87,0 0,6 148 - 0,0 0 1.018,8
02:36 11,6 9,5 10,9 87,0 0,8 146 - 0,0 0 1.018,8
02:35 11,6 9,5 10,9 87,0 1,0 144 - 0,0 0 1.018,8
02:34 11,6 9,5 10,9 87,0 0,9 142 - 0,0 0 1.018,8
02:33 11,7 9,6 11,0 87,0 0,8 140 - 0,0 0 1.018,8
02:32 11,7 9,6 11,0 87,0 0,7 138 - 0,0 0 1.018,8
02:31 11,6 9,5 10,9 87,0 0,6 138 - 0,0 0 1.018,9
02:30 11,7 9,6 11,0 87,0 0,5 138 - 0,0 0 1.018,9
02:29 11,7 9,6 11,0 87,0 0,4 139 - 0,0 0 1.018,9
02:28 11,7 9,6 11,0 87,0 0,3 140 - 0,0 0 1.018,9
02:27 11,7 9,6 11,0 87,0 0,3 140 - 0,0 0 1.018,9
02:26 11,7 9,6 11,0 87,0 0,4 140 - 0,0 0 1.018,9
02:25 11,7 9,6 11,0 87,0 0,4 139 - 0,0 0 1.018,9
02:24 11,7 9,6 11,0 87,0 0,4 138 - 0,0 0 1.018,9
02:23 11,7 9,6 11,0 87,0 0,3 137 - 0,0 0 1.018,9
02:22 11,7 9,6 11,0 87,0 0,3 135 - 0,0 0 1.018,8
02:21 11,8 9,7 11,1 87,0 0,3 134 - 0,0 0 1.018,8
02:20 11,8 9,7 11,1 87,0 0,4 132 - 0,0 0 1.018,7
02:19 11,8 9,7 11,1 87,0 0,5 131 - 0,0 0 1.018,7
02:18 11,8 9,7 11,1 87,0 0,5 129 - 0,0 0 1.018,7
02:17 11,8 9,7 11,1 87,0 0,5 127 - 0,0 0 1.018,6
02:16 11,8 9,7 11,1 87,0 0,6 125 - 0,0 0 1.018,6
02:15 11,8 9,7 11,1 87,0 0,7 124 - 0,0 0 1.018,6
02:14 11,8 9,7 11,1 87,0 0,7 123 - 0,0 0 1.018,5
02:13 11,8 9,7 11,1 87,0 0,6 122 - 0,0 0 1.018,6
02:12 11,8 9,7 11,1 87,0 0,4 121 - 0,0 0 1.018,5
02:11 11,8 9,7 11,1 87,0 0,3 120 - 0,0 0 1.018,5
02:10 11,8 9,7 11,1 87,0 0,3 120 - 0,0 0 1.018,5
02:09 11,8 9,7 11,1 87,0 0,4 120 - 0,0 0 1.018,5
02:08 11,8 9,7 11,1 87,0 0,7 121 - 0,0 0 1.018,5
02:07 11,8 9,7 11,1 87,0 0,7 122 - 0,0 0 1.018,5
02:06 11,8 9,7 11,1 87,0 0,7 124 - 0,0 0 1.018,5
02:05 11,8 9,7 11,1 87,0 0,8 128 - 0,0 0 1.018,5
02:04 11,8 9,7 11,1 87,0 0,9 132 - 0,0 0 1.018,5
02:03 11,9 9,8 11,2 87,0 0,9 137 - 0,0 0 1.018,5
02:02 11,8 9,7 11,1 87,0 0,8 141 - 0,0 0 1.018,5
02:01 11,9 9,8 11,2 87,0 0,6 144 - 0,0 0 1.018,5
02:00 11,9 9,8 11,2 86,8 0,6 147 - 0,0 0 1.018,4
 
01:59 11,9 9,6 11,1 86,0 0,4 150 - 0,0 0 1.018,5
01:58 11,9 9,6 11,1 86,0 0,3 153 - 0,0 0 1.018,4
01:57 11,9 9,6 11,1 86,0 0,6 157 - 0,0 0 1.018,5
01:56 11,9 9,6 11,1 86,0 0,7 161 - 0,0 0 1.018,5
01:55 11,9 9,6 11,1 86,0 0,8 164 - 0,0 0 1.018,5
01:54 11,9 9,6 11,1 86,0 0,9 167 - 0,0 0 1.018,5
01:53 11,9 9,6 11,1 86,0 1,0 169 - 0,0 0 1.018,5
01:52 12,0 9,7 11,2 86,0 0,9 170 - 0,0 0 1.018,5
01:51 11,9 9,6 11,1 86,0 0,7 169 - 0,0 0 1.018,5
01:50 12,0 9,7 11,2 86,0 0,5 169 - 0,0 0 1.018,5
01:49 12,0 9,7 11,2 86,0 0,3 168 - 0,0 0 1.018,5
01:48 12,0 9,7 11,2 86,0 0,4 166 - 0,0 0 1.018,6
01:47 12,1 9,8 11,3 86,0 0,8 164 - 0,0 0 1.018,5
01:46 12,1 9,8 11,3 86,0 1,1 163 - 0,0 0 1.018,6
01:45 12,1 9,8 11,3 86,0 1,0 163 - 0,0 0 1.018,6
01:44 12,1 9,8 11,3 86,0 0,7 165 - 0,0 0 1.018,5
01:43 12,1 9,8 11,3 86,0 0,5 170 - 0,0 0 1.018,5
01:42 12,1 9,8 11,3 86,0 0,5 176 - 0,0 0 1.018,5
01:41 12,1 9,8 11,3 86,0 0,4 185 - 0,0 0 1.018,5
01:40 12,2 9,9 11,4 86,0 0,4 193 - 0,0 0 1.018,5
01:39 12,2 9,9 11,4 86,0 0,6 199 - 0,0 0 1.018,5
01:38 12,2 9,9 11,4 86,0 0,8 203 - 0,0 0 1.018,4
01:37 12,2 9,9 11,4 86,0 0,8 206 - 0,0 0 1.018,4
01:36 12,2 9,9 11,4 86,0 0,6 207 - 0,0 0 1.018,5
01:35 12,3 10,0 11,5 86,0 0,8 206 - 0,0 0 1.018,5
01:34 12,2 9,9 11,4 86,0 1,1 205 - 0,0 0 1.018,4
01:33 12,3 10,0 11,5 86,0 1,4 202 - 0,0 0 1.018,5
01:32 12,3 10,0 11,5 86,0 1,5 200 - 0,0 0 1.018,5
01:31 12,3 10,0 11,5 86,0 1,4 198 - 0,0 0 1.018,4
01:30 12,3 10,0 11,5 86,0 1,2 196 - 0,0 0 1.018,4
01:29 12,3 10,0 11,5 86,0 1,0 195 - 0,0 0 1.018,5
01:28 12,4 10,1 11,6 86,0 1,0 193 - 0,0 0 1.018,4
01:27 12,4 10,1 11,6 86,0 1,2 192 - 0,0 0 1.018,4
01:26 12,3 10,0 11,5 86,0 1,4 189 - 0,0 0 1.018,4
01:25 12,4 10,1 11,6 86,0 1,5 185 - 0,0 0 1.018,5
01:24 12,4 10,1 11,6 86,0 1,5 180 - 0,0 0 1.018,5
01:23 12,4 10,1 11,6 86,0 1,2 175 - 0,0 0 1.018,5
01:22 12,5 10,2 11,7 86,0 1,0 170 - 0,0 0 1.018,5
01:21 12,5 10,2 11,7 86,0 0,8 167 - 0,0 0 1.018,5
01:20 12,4 10,0 11,5 85,1 0,5 164 - 0,0 0 1.018,4
01:19 12,5 10,0 11,6 85,0 0,4 162 - 0,0 0 1.018,5
01:18 12,5 10,0 11,6 85,0 0,5 161 - 0,0 0 1.018,5
01:17 12,5 10,0 11,6 85,0 0,5 161 - 0,0 0 1.018,5
01:16 12,5 10,0 11,6 85,0 0,7 162 - 0,0 0 1.018,5
01:15 12,6 10,1 11,7 85,0 0,8 164 - 0,0 0 1.018,5
01:14 12,6 10,1 11,7 85,0 0,8 167 - 0,0 0 1.018,5
01:13 12,6 10,1 11,7 85,0 0,8 169 - 0,0 0 1.018,5
01:12 12,6 10,1 11,7 85,0 0,7 171 - 0,0 0 1.018,5
01:11 12,6 10,1 11,7 85,0 0,6 173 - 0,0 0 1.018,5
01:10 12,7 10,2 11,8 85,0 0,6 174 - 0,0 0 1.018,5
01:09 12,7 10,2 11,8 85,0 0,5 174 - 0,0 0 1.018,5
01:08 12,7 10,2 11,8 85,0 0,5 173 - 0,0 0 1.018,5
01:07 12,7 10,2 11,8 85,0 0,6 172 - 0,0 0 1.018,5
01:06 12,7 10,2 11,8 85,0 0,8 170 - 0,0 0 1.018,5
01:05 12,7 10,2 11,8 85,0 0,8 167 - 0,0 0 1.018,5
01:04 12,7 10,2 11,8 85,0 0,8 165 - 0,0 0 1.018,5
01:03 12,8 10,3 11,9 85,0 0,6 163 - 0,0 0 1.018,5
01:02 12,7 10,2 11,8 85,0 0,3 162 - 0,0 0 1.018,4
01:00 12,8 10,3 11,9 85,0 0,1 160 - 0,0 0 1.018,4
 
00:59 12,8 10,3 11,9 85,0 0,2 156 - 0,0 0 1.018,4
00:58 12,8 10,3 11,9 85,0 0,4 149 - 0,0 0 1.018,4
00:57 12,8 10,3 11,9 85,0 0,4 140 - 0,0 0 1.018,4
00:56 12,9 10,4 12,0 85,0 0,4 130 - 0,0 0 1.018,4
00:55 12,8 10,3 11,9 85,0 0,6 122 - 0,0 0 1.018,4
00:54 12,9 10,4 12,0 85,0 0,6 116 - 0,0 0 1.018,3
00:53 12,9 10,4 12,0 85,0 0,5 113 - 0,0 0 1.018,3
00:52 12,9 10,4 12,0 85,0 0,5 112 - 0,0 0 1.018,4
00:51 12,9 10,4 12,0 85,0 0,5 113 - 0,0 0 1.018,3
00:50 12,9 10,4 12,0 85,0 0,4 114 - 0,0 0 1.018,3
00:49 12,9 10,4 12,0 85,0 0,4 116 - 0,0 0 1.018,3
00:48 13,0 10,5 12,1 85,0 0,8 118 - 0,0 0 1.018,3
00:47 13,0 10,5 12,1 85,0 1,3 121 - 0,0 0 1.018,3
00:46 13,0 10,5 12,1 85,0 1,8 124 - 0,0 0 1.018,3
00:45 13,0 10,5 12,1 85,0 2,1 126 - 0,0 0 1.018,3
00:44 13,1 10,6 12,2 85,0 2,1 127 - 0,0 0 1.018,3
00:43 13,1 10,6 12,2 85,0 2,0 128 - 0,0 0 1.018,3
00:42 13,1 10,6 12,2 85,0 1,8 129 - 0,0 0 1.018,2
00:41 13,1 10,6 12,2 85,0 1,6 130 - 0,0 0 1.018,3
00:40 13,1 10,6 12,2 85,0 1,5 131 - 0,0 0 1.018,2
00:39 13,2 10,7 12,3 85,0 1,4 132 - 0,0 0 1.018,2
00:38 13,2 10,7 12,3 85,0 1,3 132 - 0,0 0 1.018,2
00:37 13,2 10,7 12,3 85,0 1,4 133 - 0,0 0 1.018,1
00:36 13,2 10,7 12,3 85,0 1,6 134 - 0,0 0 1.018,1
00:35 13,2 10,7 12,3 85,0 1,6 135 - 0,0 0 1.018,2
00:34 13,2 10,7 12,3 85,0 1,3 137 - 0,0 0 1.018,2
00:33 13,2 10,7 12,3 85,0 1,1 137 - 0,0 0 1.018,2
00:32 13,3 10,8 12,4 85,0 0,9 137 - 0,0 0 1.018,2
00:31 13,2 10,7 12,3 85,0 0,6 137 - 0,0 0 1.018,2
00:30 13,3 10,8 12,4 85,0 0,4 136 - 0,0 0 1.018,1
00:29 13,3 10,8 12,4 85,0 0,4 136 - 0,0 0 1.018,2
00:28 13,3 10,8 12,4 85,0 0,5 135 - 0,0 0 1.018,2
00:27 13,3 10,8 12,4 85,0 0,7 134 - 0,0 0 1.018,2
00:26 13,3 10,8 12,4 85,0 0,8 132 - 0,0 0 1.018,2
00:25 13,3 10,8 12,4 85,0 0,8 131 - 0,0 0 1.018,2
00:24 13,3 10,8 12,4 85,0 0,8 130 - 0,0 0 1.018,2
00:23 13,3 10,8 12,4 85,0 0,7 130 - 0,0 0 1.018,2
00:22 13,3 10,8 12,4 85,0 0,8 131 - 0,0 0 1.018,3
00:21 13,3 10,8 12,4 85,0 0,9 133 - 0,0 0 1.018,2
00:20 13,3 10,8 12,4 85,0 0,9 134 - 0,0 0 1.018,3
00:19 13,3 10,8 12,4 85,0 0,9 135 - 0,0 0 1.018,2
00:18 13,3 10,8 12,4 85,0 0,9 136 - 0,0 0 1.018,3
00:17 13,3 10,8 12,4 85,0 0,7 138 - 0,0 0 1.018,2
00:16 13,3 10,8 12,4 85,0 0,4 142 - 0,0 0 1.018,2
00:15 13,3 10,8 12,4 85,0 0,2 146 - 0,0 0 1.018,2
00:14 13,3 10,8 12,4 85,0 0,2 150 - 0,0 0 1.018,3
00:13 13,4 10,9 12,5 85,0 0,4 153 - 0,0 0 1.018,2
00:12 13,4 10,9 12,5 85,0 0,4 155 - 0,0 0 1.018,2
00:11 13,3 10,8 12,4 85,0 0,2 158 - 0,0 0 1.018,2
00:10 13,4 10,9 12,5 85,0 0,1 164 - 0,0 0 1.018,2
00:09 13,4 10,9 12,5 85,0 0,4 172 - 0,0 0 1.018,2
00:08 13,4 10,9 12,5 85,0 0,4 182 - 0,0 0 1.018,1
00:07 13,4 10,9 12,5 85,0 0,3 192 - 0,0 0 1.018,2
00:06 13,4 10,9 12,5 85,0 0,3 199 - 0,0 0 1.018,1
00:05 13,4 10,9 12,5 85,0 0,5 203 - 0,0 0 1.018,1
00:04 13,5 11,0 12,6 85,0 0,5 205 - 0,0 0 1.018,1
00:03 13,5 11,0 12,6 85,0 0,5 206 - 0,0 0 1.018,1
00:02 13,4 10,9 12,5 85,0 0,4 206 - 0,0 0 1.018,1
00:01 13,5 11,0 12,6 85,0 0,3 205 - 0,0 0 1.018,1
00:00 13,5 11,0 12,6 85,0 0,2 203 - 0,0 0 1.018,1
 
23:59 13,5 11,0 12,6 85,0 0,4 201 - 0,0 0 1.018,1
23:58 13,6 11,1 12,7 85,0 0,7 199 - 0,0 0 1.018,0
23:57 13,6 11,1 12,7 85,0 0,9 196 - 0,0 0 1.018,0
23:56 13,6 11,1 12,7 85,0 1,0 194 - 0,0 0 1.018,0
23:55 13,6 11,1 12,7 85,0 1,1 192 - 0,0 0 1.018,0
23:54 13,6 11,1 12,7 85,0 1,1 189 - 0,0 0 1.018,0
23:53 13,6 11,0 12,6 84,2 0,9 186 - 0,0 0 1.017,9
23:52 13,7 11,0 12,7 84,0 0,7 184 - 0,0 0 1.018,0
23:51 13,7 11,1 12,7 84,2 0,6 182 - 0,0 0 1.018,0
23:50 13,7 11,2 12,8 84,7 0,7 181 - 0,0 0 1.017,9
23:49 13,7 11,1 12,8 84,5 0,7 180 - 0,0 0 1.018,0
23:48 13,7 11,2 12,8 85,0 0,8 178 - 0,0 0 1.018,0
23:47 13,7 11,1 12,7 84,2 0,9 174 - 0,0 0 1.018,0
23:46 13,7 11,2 12,8 84,9 0,7 169 - 0,0 0 1.018,0
23:45 13,8 11,2 12,8 84,3 0,5 162 - 0,0 0 1.018,0
23:44 13,8 11,3 12,9 85,0 0,4 153 - 0,0 0 1.017,9
23:43 13,8 11,3 12,9 85,0 0,4 144 - 0,0 0 1.018,0
23:42 13,8 11,3 12,9 85,0 0,3 134 - 0,0 0 1.017,9
23:41 13,8 11,3 12,9 85,0 0,2 127 - 0,0 0 1.017,9
23:40 13,8 11,2 12,8 84,1 0,2 122 - 0,0 0 1.017,9
23:39 13,8 11,2 12,8 84,3 0,3 119 - 0,0 0 1.017,9
23:38 13,8 11,3 12,9 85,0 0,2 117 - 0,0 0 1.018,0
23:37 13,8 11,3 12,9 85,0 2,0 119 - 0,0 0 1.017,9
23:36 13,9 11,4 13,0 85,0 2,7 276 - 0,0 0 1.017,9
23:35 13,9 11,4 13,0 85,0 2,1 83 - 0,0 0 1.017,9
23:34 13,9 11,4 13,0 85,0 1,5 43 - 0,0 0 1.017,9
23:33 13,9 11,4 13,0 85,0 2,6 111 - 0,0 0 1.017,9
23:32 13,9 11,3 13,0 84,6 1,2 103 - 0,0 0 1.017,8
23:31 13,9 11,2 12,9 84,0 1,5 35 - 0,0 0 1.017,8
23:30 14,0 11,3 13,0 84,0 2,5 148 - 0,0 0 1.017,8
23:29 14,0 11,3 13,0 84,0 1,7 134 - 0,0 0 1.017,8
23:28 14,0 11,3 13,0 84,0 3,7 113 - 0,0 0 1.017,7
23:27 14,0 11,3 13,0 84,0 1,0 75 - 0,0 0 1.017,8
23:26 14,1 11,4 13,1 84,0 1,7 135 - 0,0 0 1.017,8
23:25 14,1 11,4 13,1 84,0 0,9 249 - 0,0 0 1.017,7
23:24 14,1 11,4 13,1 84,0 1,8 113 - 0,0 0 1.017,8
23:23 14,1 11,4 13,1 84,0 1,5 108 - 0,0 0 1.017,8